GFSGL_850_thetae_000.txt.gz
Theta_e
326 328 328 329 330 326 324 324 324 324 323 322 322 322 323 323 324 324 325 327 328 329 330 330 330 328 331 329 328 327 328 327 327 327 327 328 328 327 326 325 326 327 325
325 327 328 329 330 327 326 325 325 325 324 324 323 324 324 324 324 324 325 324 327 328 328 330 330 331 330 328 329 329 327 327 328 327 328 327 327 326 325 326 327 320 316
324 328 328 329 327 327 326 325 324 325 324 324 324 324 324 324 324 325 323 325 326 326 326 328 330 330 330 329 328 325 327 328 328 326 327 327 326 326 326 327 323 317 313
323 326 328 328 327 328 325 326 325 325 324 323 323 324 325 324 325 324 323 324 326 325 327 328 330 331 329 328 326 327 326 327 326 326 325 326 327 328 327 322 317 310 314
323 323 327 326 329 329 325 327 326 326 326 324 323 325 325 325 324 323 324 324 324 324 328 329 329 329 329 329 328 325 325 325 323 324 326 327 325 326 323 310 308 310 315
320 320 325 326 328 328 327 327 327 327 327 327 325 326 326 327 326 326 326 325 327 327 328 328 329 329 329 328 326 325 326 327 327 325 325 324 323 318 312 311 313 315 318
319 318 322 327 328 326 328 327 327 326 327 327 327 327 327 327 327 327 327 326 327 327 328 328 327 327 326 327 327 327 328 326 321 320 319 321 321 320 319 319 319 320 322
318 318 320 328 327 325 324 326 328 326 324 323 326 327 326 326 328 328 327 326 326 327 327 328 327 327 326 325 325 325 325 326 325 324 324 322 323 322 323 323 323 323 326
318 318 318 327 328 327 324 323 325 326 325 321 324 323 327 327 327 327 326 326 327 327 327 327 327 326 326 325 323 322 324 323 325 326 324 324 325 325 326 326 327 326 323
319 318 318 323 329 329 326 324 324 324 325 318 320 319 323 324 325 326 327 328 328 327 327 327 326 326 324 323 320 320 324 325 324 324 326 326 323 317 315 316 315 316 317
320 318 319 317 322 329 328 327 326 325 325 321 318 319 322 325 322 322 320 319 318 317 315 319 322 316 315 317 317 319 321 321 320 316 314 314 319 319 318 318 319 319 318
321 319 319 319 321 323 327 327 327 326 325 324 324 319 320 323 322 323 321 319 319 318 318 315 313 313 313 315 314 316 315 315 315 313 315 316 318 320 322 322 320 318 319
322 320 321 318 319 323 323 326 326 326 322 326 325 325 319 321 323 323 322 322 319 318 317 316 313 314 315 315 315 314 315 319 319 316 312 318 323 323 322 321 320 319 313
323 320 321 319 318 321 322 324 324 324 321 322 327 327 324 319 314 317 317 319 319 315 313 312 314 312 313 315 317 317 320 322 318 313 317 322 323 322 321 319 315 309 307
324 321 321 321 317 318 319 320 321 322 321 319 325 326 325 322 317 311 313 315 315 312 312 310 312 311 313 316 317 318 317 311 310 311 316 319 321 319 317 313 309 304 300
324 321 321 322 319 318 318 319 321 321 321 319 319 322 322 319 316 312 310 311 314 312 313 311 313 312 313 315 316 314 311 310 313 313 319 322 321 317 315 306 302 300 299
324 323 322 322 321 320 319 320 320 322 321 318 317 320 321 316 315 314 308 308 311 313 314 315 314 314 314 314 313 312 310 314 319 321 322 321 317 315 302 301 305 299 298
324 324 322 323 322 321 320 320 320 318 316 319 314 319 321 320 319 318 318 308 308 312 313 316 316 316 317 315 313 312 314 319 319 321 320 318 308 302 307 305 298 298 297
325 325 324 323 322 321 321 320 320 319 317 316 322 318 322 321 321 319 319 318 307 309 313 314 316 317 317 313 317 320 320 320 319 319 318 308 306 309 304 298 298 297 296
328 326 325 325 324 322 321 321 321 321 319 317 319 321 320 321 320 320 320 319 315 308 310 313 315 315 315 313 317 320 321 320 318 318 313 307 308 300 301 300 297 296 296
331 328 327 325 326 324 323 322 322 322 321 319 317 318 319 319 320 319 319 320 318 317 315 314 314 314 313 312 313 318 320 319 317 316 308 305 299 300 300 297 296 296 296
332 331 329 327 326 326 324 324 323 323 324 323 321 319 320 319 318 318 318 318 318 319 318 317 314 313 313 312 314 317 321 318 317 308 304 302 304 301 297 296 296 296 295
333 332 330 329 328 328 326 326 324 324 324 324 324 322 320 321 320 319 318 317 318 318 318 317 316 315 314 313 314 317 320 318 313 307 305 308 300 296 296 296 296 295 294
333 332 332 331 331 330 328 327 326 325 324 323 324 324 323 322 320 320 319 318 317 317 317 317 316 315 313 315 316 318 316 311 306 303 306 300 297 296 296 296 295 294 294
333 333 332 332 332 332 330 329 327 326 326 325 325 324 324 323 322 321 321 320 318 316 316 316 315 314 315 317 316 314 306 302 301 303 302 297 296 296 296 295 294 294 293
331 332 332 332 331 331 331 330 329 327 327 327 327 326 326 325 325 324 321 320 319 316 315 315 314 313 315 317 313 306 302 302 302 302 298 297 296 295 295 294 294 293 292

GFSGL_850_thetae_003.txt.gz
Theta_e
326 328 327 328 329 324 324 323 324 321 320 319 318 318 319 321 323 324 323 324 328 329 329 330 328 328 329 326 325 328 329 329 329 328 328 327 328 328 327 325 324 327 325
325 328 327 328 328 325 325 324 325 322 321 320 321 320 321 323 324 325 326 327 327 328 330 330 329 329 330 329 328 329 330 329 329 327 326 328 328 326 325 323 323 323 321
325 327 327 326 326 326 324 324 325 323 322 321 322 323 323 323 324 324 323 325 327 327 328 330 330 330 330 329 329 328 328 327 327 327 327 327 327 325 324 325 325 319 312
324 327 327 326 326 326 325 324 324 323 322 323 323 323 323 323 324 323 325 326 326 325 326 330 330 330 329 329 328 328 326 328 327 326 327 326 325 325 325 325 323 315 311
322 325 327 325 327 325 326 324 323 323 321 322 323 324 324 324 324 323 323 324 324 324 327 331 329 330 329 328 326 326 328 326 326 326 326 326 326 326 326 322 315 309 313
321 323 324 326 327 326 326 325 325 324 323 322 323 324 325 325 324 324 324 324 324 324 329 330 330 329 328 327 326 326 326 325 325 325 325 326 327 326 322 310 311 312 317
320 321 322 325 327 327 326 326 326 326 327 325 325 326 327 326 326 326 324 325 326 327 328 328 328 329 328 327 325 325 326 325 325 326 324 321 319 315 313 313 316 318 321
320 319 319 326 327 326 326 326 325 323 324 326 326 325 326 327 326 326 326 326 327 328 327 328 328 327 327 326 326 327 328 326 323 321 321 322 322 322 322 322 322 323 325
319 318 318 327 325 325 324 327 327 324 322 323 324 325 326 328 328 326 326 326 326 326 327 326 325 326 327 326 326 325 325 324 324 325 325 325 327 325 325 325 324 324 326
319 318 317 326 326 324 323 322 326 324 322 317 319 326 326 327 326 326 327 326 326 326 327 327 326 325 325 324 322 323 323 324 326 325 323 327 326 320 317 316 316 318 318
321 318 317 321 327 327 326 323 323 324 324 317 316 322 324 326 326 326 326 327 326 326 326 326 326 325 325 323 321 323 324 323 320 319 322 321 316 316 318 318 319 319 319
322 318 318 319 326 328 329 326 326 325 324 320 316 318 322 319 320 322 325 323 321 322 325 324 320 321 320 320 320 319 319 320 320 319 315 315 318 320 320 320 320 322 320
322 318 318 318 317 321 328 328 327 327 326 324 321 318 320 322 321 321 318 321 318 317 315 315 320 316 313 316 315 315 317 315 315 314 315 314 315 318 322 323 322 321 322
322 320 319 318 318 321 324 325 326 325 325 322 322 323 318 322 322 323 322 321 320 320 320 319 315 313 313 315 316 315 315 316 317 317 317 314 319 323 322 321 322 319 312
322 321 319 320 318 320 322 323 323 324 322 321 319 321 324 320 318 320 320 319 320 321 319 318 317 315 314 315 316 317 317 319 318 315 312 314 321 322 321 319 314 311 308
322 323 319 320 320 318 320 322 323 322 321 321 319 316 322 321 320 315 313 315 315 316 314 312 311 313 311 312 316 318 317 317 315 311 311 316 319 321 320 312 308 305 301
321 323 321 319 320 318 317 319 321 320 321 322 321 320 320 319 320 320 315 311 312 315 314 312 311 312 312 313 314 316 316 317 313 311 312 316 320 320 315 312 303 302 300
322 322 322 319 320 320 318 318 318 319 319 321 321 317 318 319 320 319 317 314 311 310 313 313 313 313 313 312 313 314 316 314 311 312 317 319 320 317 312 304 306 301 299
323 322 323 320 320 321 320 319 319 319 319 317 316 315 313 318 319 319 320 317 313 308 309 312 313 315 314 314 313 313 312 311 310 313 320 320 317 313 304 308 302 299 298
325 324 323 324 321 321 321 320 319 319 320 319 317 315 312 318 320 319 319 319 318 318 308 308 312 313 316 316 316 316 315 312 311 316 319 316 313 304 308 304 299 299 298
327 326 324 324 324 322 322 322 320 320 320 320 320 317 316 315 317 318 319 319 318 318 318 312 308 311 313 316 317 317 315 315 318 317 316 314 307 307 302 299 304 299 296
329 329 327 326 324 325 324 323 322 321 321 321 321 321 317 318 319 318 318 318 318 319 319 318 315 309 310 312 314 316 316 315 319 318 315 311 305 302 301 306 303 297 295
331 330 330 329 328 326 325 325 325 323 323 323 322 323 322 320 318 318 318 317 317 318 318 318 319 318 316 311 310 312 313 312 314 316 312 306 302 300 306 301 297 295 294
332 332 331 332 331 329 327 326 326 326 325 324 323 324 324 324 323 321 320 320 320 319 318 318 318 318 318 318 315 315 313 314 315 315 306 302 300 306 299 297 296 294 293
333 332 332 332 332 331 330 330 329 328 328 327 325 324 325 324 324 324 324 323 321 320 320 319 318 317 318 317 316 315 314 317 316 314 305 302 304 300 299 296 294 293 293
334 334 333 333 332 332 331 331 331 331 330 329 327 326 326 325 324 324 325 324 324 323 322 321 319 317 316 316 315 314 314 314 313 307 301 302 303 301 297 294 293 292 293

GFSGL_850_thetae_006.txt.gz
Theta_e
326 327 327 327 328 324 324 323 322 320 321 319 319 322 321 321 323 323 323 327 326 324 328 329 327 328 328 325 325 328 329 329 328 328 328 327 326 326 326 327 327 326 326
325 327 327 327 327 325 324 323 324 321 319 318 318 317 318 323 324 325 326 327 328 328 329 329 328 328 328 326 326 329 328 329 329 328 327 327 327 327 325 324 325 324 317
325 327 327 326 325 326 324 324 323 322 321 320 321 322 322 324 325 323 325 327 327 328 329 328 328 329 329 326 327 327 328 328 328 328 328 328 327 326 325 324 322 314 310
324 327 327 325 326 324 324 324 323 322 321 323 323 323 323 324 323 324 324 325 325 327 331 330 329 329 329 329 328 328 328 329 327 328 327 327 326 323 324 325 321 315 311
323 327 327 326 326 325 323 321 322 322 323 323 323 323 323 324 323 323 325 324 324 326 329 329 329 330 329 329 328 327 327 327 327 326 326 325 325 324 325 325 320 310 314
322 325 326 327 325 325 323 322 321 321 322 323 323 323 322 322 322 323 323 324 323 324 328 328 329 328 328 327 327 327 327 327 326 327 326 325 325 325 326 316 310 313 318
320 324 324 327 326 325 325 326 326 325 322 324 325 326 326 325 325 323 324 325 325 329 328 328 328 327 326 326 326 327 326 324 326 324 325 326 326 325 317 310 311 317 321
320 322 322 326 327 326 325 324 323 326 325 325 325 326 326 325 326 324 326 327 327 328 329 328 328 327 326 325 325 325 324 324 324 325 324 321 319 315 315 319 322 323 324
320 320 321 325 327 326 326 325 324 322 325 325 325 326 326 326 325 325 326 327 327 328 328 328 328 327 325 325 327 327 327 325 323 322 321 321 322 322 322 322 322 323 325
320 319 318 325 326 325 323 326 325 323 320 322 325 326 327 327 326 326 326 326 326 326 325 325 326 326 326 326 324 325 325 324 325 324 324 326 326 324 324 325 323 320 319
320 318 317 321 326 324 323 322 325 322 319 319 326 326 326 326 326 326 326 326 327 326 325 326 327 326 325 323 323 324 325 323 324 323 323 324 316 315 316 317 318 317 317
322 318 317 318 327 324 325 322 323 323 322 316 320 324 326 326 326 326 326 326 326 327 326 325 325 325 324 321 323 322 321 320 319 317 316 315 316 318 319 319 319 319 321
322 320 317 317 321 327 327 326 324 325 325 320 316 318 318 322 323 326 326 325 324 325 325 325 324 323 323 321 320 319 318 319 318 318 314 316 318 319 319 320 321 321 321
322 322 317 317 320 324 327 328 327 326 325 324 319 317 318 318 319 317 317 317 318 317 316 322 316 316 316 317 317 317 317 317 315 315 315 314 313 315 319 322 322 322 321
321 322 318 317 318 319 323 324 327 326 325 324 321 317 316 317 318 319 319 317 317 318 318 317 315 315 313 312 315 315 315 316 315 317 317 317 314 318 321 322 321 320 315
321 322 320 318 318 318 320 322 325 324 323 323 323 319 317 316 315 318 319 320 320 320 319 319 318 316 312 312 314 315 315 315 317 319 318 312 313 317 320 320 318 314 309
321 321 322 318 319 319 318 320 321 323 323 323 323 323 320 319 321 321 316 319 320 319 318 318 315 314 313 312 313 313 314 315 317 317 315 311 314 318 318 319 315 310 303
322 321 321 321 319 320 319 318 318 319 321 322 321 322 320 320 322 323 323 320 317 313 314 315 314 312 311 312 311 312 314 316 316 317 315 311 313 317 318 315 312 305 302
324 322 321 321 319 319 319 320 318 318 318 319 319 320 320 317 320 322 321 321 318 314 311 311 313 313 313 312 312 312 312 314 316 317 315 312 314 317 317 313 307 302 301
326 325 323 321 322 319 319 319 319 318 318 318 319 319 319 317 314 317 318 318 319 316 312 310 309 311 313 313 313 312 311 310 311 312 311 311 314 318 315 312 304 304 302
327 326 324 323 322 322 319 319 320 320 319 319 319 319 318 316 313 313 315 315 314 314 314 313 310 308 309 312 313 314 314 314 312 310 309 310 316 315 311 306 304 299 301
328 328 326 325 323 323 323 321 320 321 321 320 319 319 320 319 316 314 314 315 315 315 316 316 316 317 315 310 309 311 314 316 315 315 313 312 315 311 308 304 301 301 304
326 329 327 326 326 324 323 324 323 322 322 322 321 320 320 320 320 318 316 316 316 317 318 318 318 318 319 319 318 310 309 311 314 316 316 314 314 312 306 303 301 304 302
329 327 329 328 328 327 326 324 324 324 324 324 323 323 323 322 322 323 322 319 317 318 318 318 318 318 318 318 318 319 317 311 310 315 316 316 314 309 308 302 303 302 298
329 329 328 330 329 329 329 328 327 326 325 325 325 325 325 323 323 324 324 323 323 322 321 321 320 320 320 319 318 317 318 316 311 312 314 314 311 309 304 302 303 301 296
330 329 328 330 331 331 331 330 330 329 328 328 328 328 328 327 325 324 325 325 325 324 324 324 323 322 322 320 319 317 316 316 312 310 312 313 314 307 301 302 302 299 294

GFSGL_850_thetae_009.txt.gz
Theta_e
327 327 326 326 328 325 324 323 320 322 321 320 321 323 321 322 324 324 324 324 324 324 325 327 327 327 327 326 328 329 328 329 329 327 328 326 325 325 324 325 324 327 326
326 327 326 326 327 325 324 323 322 319 319 318 318 318 319 323 324 325 327 328 327 328 328 326 327 327 328 327 329 329 329 329 328 327 327 327 325 326 326 326 326 325 320
326 327 327 326 326 326 324 324 321 320 318 318 319 319 323 325 324 326 328 328 329 329 329 328 328 328 327 326 328 330 329 328 328 327 326 327 327 326 324 325 322 316 312
325 327 327 325 326 325 324 324 322 320 320 321 322 323 324 323 323 325 325 325 328 329 329 329 329 329 327 327 329 328 328 328 327 327 327 326 326 324 323 322 316 310 309
325 327 326 326 326 325 323 323 321 321 323 323 323 323 324 324 325 326 325 324 327 328 329 328 329 329 328 327 328 328 328 328 327 327 327 327 325 325 324 322 316 315 314
324 327 325 326 325 322 321 322 322 323 323 323 323 323 324 324 322 323 323 323 324 327 328 329 329 329 329 328 328 328 328 327 326 327 326 325 324 324 325 321 315 316 319
323 326 325 326 324 323 322 321 321 322 323 324 324 324 323 323 323 323 324 324 326 327 328 328 328 328 328 328 326 327 327 326 325 326 326 324 324 325 324 321 312 320 324
322 325 325 326 325 326 325 325 326 324 324 325 326 327 326 326 324 325 327 327 328 327 328 327 326 326 326 327 327 327 326 326 327 325 325 325 325 325 311 310 317 321 322
322 323 324 327 326 324 324 323 322 325 325 325 326 326 326 326 325 326 327 328 329 327 327 327 327 326 325 325 325 325 325 326 325 325 323 323 320 315 313 315 318 323 325
321 322 323 326 327 325 326 325 322 321 324 325 325 327 326 326 325 326 327 328 329 328 327 327 326 326 326 327 327 326 325 324 323 321 320 318 319 320 321 321 322 325 326
320 321 321 323 326 325 324 326 323 320 318 325 326 327 327 326 326 326 326 326 326 329 328 327 325 326 326 324 325 324 323 323 323 323 324 324 322 322 323 324 321 320 320
321 320 320 320 326 324 322 323 324 322 317 323 325 326 326 326 326 326 326 327 325 325 326 326 326 325 323 324 325 324 323 324 323 323 324 319 318 317 317 317 317 318 317
321 319 319 319 325 325 324 322 324 323 321 316 322 326 326 326 326 326 326 326 326 325 327 326 325 324 322 324 323 321 321 319 318 319 318 315 316 318 319 319 319 320 320
322 321 318 318 320 326 324 325 323 325 324 320 317 319 322 326 326 326 326 326 326 326 326 325 325 324 323 321 322 320 320 319 316 316 315 316 317 318 318 319 320 320 320
321 322 320 318 317 320 326 327 328 326 325 324 319 317 317 318 317 317 317 316 316 320 324 322 319 320 321 321 320 319 318 318 317 315 315 315 315 315 316 319 320 320 320
320 322 322 318 317 319 319 325 326 327 326 325 321 319 315 317 317 318 316 316 315 316 316 316 318 317 314 314 315 316 315 315 316 316 318 319 317 314 316 319 319 319 317
319 320 321 320 317 317 318 319 321 323 325 323 323 324 322 318 315 317 319 320 319 319 319 317 316 315 312 311 311 312 313 314 314 316 318 319 315 314 316 319 318 318 314
321 319 320 321 318 318 318 318 321 323 322 322 322 323 324 320 321 321 317 317 319 320 319 320 318 317 316 314 313 312 313 314 315 316 317 318 315 313 315 318 318 317 313
324 321 319 319 320 318 318 318 320 322 323 324 321 321 322 323 319 322 325 324 321 317 316 316 316 315 314 313 312 312 313 313 313 315 318 317 316 314 316 317 315 313 308
325 325 322 320 320 319 318 319 320 321 320 321 320 319 321 321 321 317 319 322 322 321 319 315 312 312 313 313 313 313 312 312 312 312 315 317 317 314 315 315 314 311 305
326 326 325 322 320 319 318 318 319 319 319 319 318 318 318 319 319 319 315 315 317 317 316 314 313 311 311 310 312 313 313 313 312 311 311 312 314 313 313 314 316 312 305
326 326 326 324 323 321 320 318 318 318 318 319 319 318 318 319 320 320 318 315 313 314 314 313 313 312 311 311 309 309 310 312 313 314 313 311 310 310 311 314 311 306 305
326 326 326 325 324 323 323 321 321 319 319 319 320 320 320 319 319 319 320 318 315 313 314 315 315 316 317 317 317 318 317 313 309 310 313 314 312 309 311 313 309 305 305
326 326 326 326 325 325 324 323 323 323 323 321 320 321 321 321 321 320 320 320 320 317 316 316 316 317 318 318 318 318 318 319 319 318 310 311 312 310 311 312 308 306 305
328 326 325 326 326 325 325 326 324 323 324 324 324 323 323 323 323 323 322 322 323 323 321 318 318 319 319 319 319 319 319 318 318 318 317 311 311 311 311 310 306 306 303
329 329 329 326 326 326 325 325 328 326 326 326 324 324 324 325 324 324 324 322 322 323 323 323 323 323 323 322 321 321 321 319 318 316 315 313 311 312 310 308 306 305 302

GFSGL_850_thetae_012.txt.gz
Theta_e
331 331 331 331 331 329 329 327 328 328 327 327 327 328 328 329 324 325 325 325 328 326 325 326 326 326 328 328 327 329 329 327 327 328 326 323 323 323 323 324 325 324 320
330 331 331 330 331 328 329 328 326 327 327 326 327 327 327 329 324 326 328 327 328 325 327 325 327 327 327 327 329 328 327 328 327 326 324 324 324 323 325 325 325 325 326
330 330 331 330 330 329 329 328 327 326 326 325 327 327 329 330 329 328 329 329 329 329 326 326 327 327 327 327 329 329 328 327 327 326 324 325 325 325 325 325 325 321 317
329 329 331 330 330 330 329 328 327 326 326 327 328 329 329 329 329 326 327 330 330 330 329 327 327 328 327 328 329 328 328 327 326 325 325 325 325 325 324 323 320 319 314
328 329 330 331 331 329 329 328 327 327 328 329 329 329 329 329 329 327 327 330 329 329 329 329 329 329 328 329 329 328 328 327 327 326 326 325 326 324 321 319 316 312 309
328 329 330 330 329 329 328 328 329 329 329 329 329 329 329 327 324 323 327 329 330 330 330 329 329 328 327 328 328 328 327 327 327 325 326 324 323 323 321 316 315 312 320
328 329 330 329 328 328 328 329 329 329 330 330 329 330 330 323 323 324 324 329 329 329 330 329 329 328 328 328 328 328 328 327 326 325 326 325 324 324 323 316 320 320 322
327 329 329 328 329 329 329 329 329 330 330 328 328 329 327 324 324 326 326 327 328 329 329 329 328 328 327 327 327 327 326 327 326 326 326 323 324 324 322 317 317 325 325
326 329 329 329 329 330 330 331 331 330 330 330 330 329 328 325 325 327 329 328 328 329 328 329 328 328 327 327 327 326 326 326 326 324 322 323 324 325 325 322 326 325 325
325 328 329 329 329 329 329 328 329 330 330 329 331 330 326 325 326 327 328 328 330 329 327 326 326 327 327 326 328 328 328 326 326 326 325 325 325 316 312 321 325 326 326
323 327 329 330 329 330 331 323 326 328 328 330 331 328 326 325 326 327 329 327 328 327 328 326 326 326 326 326 328 329 328 326 322 324 323 322 318 315 315 325 326 328 327
323 325 327 329 329 330 331 328 327 326 329 330 330 330 328 326 326 326 326 327 328 328 328 328 326 325 324 324 323 322 321 322 326 326 326 325 324 324 325 322 323 327 327
323 323 325 327 329 330 329 329 327 326 326 329 330 330 330 330 326 327 326 326 328 329 330 329 325 324 324 325 325 326 325 327 327 327 327 327 327 326 322 322 320 319 319
324 324 324 325 329 329 328 328 327 325 324 324 328 329 329 330 328 326 326 325 326 327 327 326 324 323 325 325 321 320 322 324 326 326 323 321 319 318 318 318 318 318 319
324 324 324 323 324 330 328 329 327 327 324 322 323 325 328 329 329 328 327 327 326 327 326 325 324 324 325 325 325 323 323 322 322 323 323 319 318 320 320 318 318 320 319
324 324 323 321 322 325 329 329 328 328 325 323 321 323 323 323 323 323 324 326 327 326 326 326 326 325 325 325 324 323 322 321 322 323 323 321 320 319 318 317 317 318 318
324 324 323 321 322 321 323 328 328 328 327 326 323 320 320 320 319 316 316 315 315 317 323 324 323 322 323 323 323 322 321 321 322 323 321 321 321 320 318 318 318 319 317
325 324 324 322 321 321 323 323 323 325 325 325 321 324 323 320 317 318 319 318 317 317 320 320 320 320 319 318 318 318 319 320 321 322 322 322 322 320 318 318 318 317 315
326 324 323 323 322 321 321 322 322 322 322 322 322 321 324 324 321 321 318 320 322 321 321 321 321 321 320 320 320 318 317 317 319 321 321 321 321 320 318 317 317 315 313
326 325 324 323 322 321 321 322 322 322 323 323 323 324 322 323 324 320 320 321 321 320 320 320 320 321 321 321 320 320 319 319 318 319 320 320 320 320 319 318 317 312 312
328 327 324 324 323 322 321 321 321 321 322 323 323 324 324 319 323 323 322 319 322 322 322 321 320 319 318 317 318 319 319 319 319 318 318 319 319 319 319 318 316 313 308
328 328 326 325 325 324 323 321 322 322 322 322 322 323 323 321 322 323 324 324 321 321 321 322 321 320 319 318 316 316 316 317 318 318 318 318 318 318 317 317 314 308 306
328 328 327 326 326 325 324 324 322 322 322 322 322 322 322 322 322 322 324 325 325 323 321 321 321 321 320 319 318 317 316 314 314 316 317 317 317 317 316 314 311 307 305
329 328 328 326 326 326 326 326 325 324 324 323 322 322 322 323 322 322 322 325 325 324 323 321 320 321 320 320 320 320 320 319 318 317 316 316 316 315 314 312 309 306 306
329 329 328 328 327 326 327 327 327 327 326 325 325 324 324 324 325 322 324 324 325 324 324 323 321 320 319 321 321 319 318 317 318 318 318 317 316 314 311 309 306 305 306
328 329 329 328 328 327 327 328 328 328 328 328 327 327 327 327 326 325 325 325 325 325 324 324 323 321 319 318 318 319 319 319 320 320 318 317 315 313 310 307 306 306 305

GFSGL_850_thetae_015.txt.gz
Theta_e
332 331 332 331 332 331 331 330 329 329 328 328 329 329 329 329 329 328 326 327 328 326 324 323 324 325 327 330 330 330 329 329 329 327 326 326 324 324 323 323 323 323 323
331 331 330 332 332 332 331 329 330 328 327 328 328 328 328 330 330 326 328 327 328 326 326 327 325 325 328 326 328 330 329 328 328 325 324 323 323 323 323 323 324 324 323
330 331 331 331 333 331 331 329 328 328 328 328 328 328 329 330 330 329 329 329 328 328 324 325 327 327 328 329 328 328 327 328 326 325 323 323 324 324 324 324 323 323 322
330 330 331 331 333 330 329 329 327 327 327 328 328 328 329 329 328 328 330 330 330 329 326 327 328 328 328 328 328 328 327 326 324 324 323 324 324 324 325 324 322 321 317
329 330 331 332 332 330 329 329 327 327 327 328 329 329 329 329 329 331 330 330 330 330 329 328 327 328 328 329 329 327 327 325 326 325 325 324 324 324 324 322 320 319 315
329 330 332 331 330 330 329 329 328 328 328 328 329 329 330 328 323 324 329 331 330 330 329 330 328 329 329 328 328 328 327 325 325 325 325 324 324 324 322 320 318 314 311
329 331 331 330 330 330 330 330 330 329 329 329 329 329 330 324 323 324 327 331 330 329 330 329 328 328 329 328 328 328 327 326 325 325 325 324 323 322 322 319 313 311 313
329 331 330 330 330 330 330 330 331 330 329 331 330 329 329 323 323 326 327 332 330 330 328 328 328 328 328 328 328 328 327 326 326 325 325 322 323 323 323 316 313 323 322
330 330 330 330 331 331 330 331 332 330 330 330 331 330 330 323 326 326 330 331 332 330 329 329 330 327 327 328 328 327 327 326 325 326 325 324 324 323 322 318 324 325 324
329 330 330 331 331 331 332 333 333 332 331 331 330 331 330 324 327 328 329 330 331 329 329 330 328 327 327 326 326 326 326 326 325 325 323 324 325 323 320 322 325 325 324
328 331 330 331 331 332 331 331 331 332 331 330 330 330 329 327 327 328 329 330 328 328 329 328 327 327 326 326 325 325 325 324 322 323 323 325 325 325 322 323 326 326 327
327 330 331 331 331 332 332 330 329 331 332 330 330 331 330 327 327 329 328 329 330 328 328 328 326 327 328 328 327 328 328 326 327 328 327 326 326 319 321 328 328 329 329
326 329 331 332 332 332 332 329 328 330 331 331 332 331 331 329 326 326 328 328 330 329 328 326 325 325 325 326 326 323 324 326 325 324 324 324 323 323 325 326 324 325 325
326 328 330 332 331 332 330 329 326 327 329 330 331 331 332 330 328 326 327 328 329 330 328 324 324 324 326 323 322 323 327 327 327 327 327 327 327 329 328 325 323 323 323
326 327 328 329 330 331 329 329 328 326 325 326 328 329 330 331 330 326 327 329 330 330 328 324 324 328 328 324 324 324 325 327 328 328 325 325 326 327 325 324 321 319 318
326 326 327 326 329 330 329 330 328 328 324 324 325 327 329 330 330 327 326 328 329 327 328 328 328 327 327 327 326 325 325 324 325 325 325 324 323 322 323 322 321 320 319
326 326 326 325 326 328 330 329 330 328 327 322 323 324 325 325 325 325 326 327 328 327 329 329 328 328 328 327 326 326 324 324 324 325 326 325 322 322 321 321 320 320 321
326 325 325 323 324 324 327 330 330 330 328 326 321 319 322 323 321 317 320 321 324 326 327 328 328 326 326 326 326 325 324 323 323 324 325 324 323 322 322 321 320 319 320
326 325 325 325 323 323 323 324 328 328 329 328 326 322 320 320 318 318 317 317 321 320 320 322 323 323 323 322 322 322 322 322 322 322 323 324 324 323 323 321 320 319 320
326 326 325 325 324 323 323 324 324 324 324 324 324 324 320 323 321 317 317 318 322 322 320 319 321 322 322 321 321 320 319 318 318 320 322 323 323 323 323 322 320 320 319
327 327 325 324 324 323 322 323 323 323 324 324 324 324 325 318 323 322 319 318 320 321 322 322 322 322 322 323 323 323 322 321 320 319 319 321 322 322 322 321 321 320 319
329 329 327 325 324 324 323 322 323 323 323 323 324 324 325 325 323 323 324 323 321 321 320 322 322 322 321 321 320 321 322 322 321 321 320 320 320 321 321 321 321 320 318
330 330 330 327 325 326 325 324 323 323 323 323 323 324 324 325 324 322 322 323 324 323 321 321 322 323 322 321 320 319 318 318 319 320 320 321 320 320 320 320 320 320 317
330 330 331 330 327 326 327 325 325 324 324 324 323 323 324 324 324 323 323 323 324 325 325 323 322 322 322 322 321 320 319 318 317 317 318 318 319 320 319 320 320 319 315
331 330 330 331 329 327 327 327 327 326 325 325 325 324 324 324 325 325 323 322 323 325 326 327 326 324 322 322 322 321 320 319 319 318 318 316 316 317 318 319 318 317 313
330 330 331 331 330 329 327 328 328 328 328 327 326 326 325 325 325 325 326 325 323 324 325 326 326 326 325 323 322 322 321 321 321 321 320 321 320 319 319 318 316 314 311

GFSGL_850_thetae_021.txt.gz
Theta_e
333 333 330 330 330 330 328 329 327 328 327 326 327 328 328 327 326 326 326 325 324 325 325 324 324 323 325 326 327 328 328 327 325 326 328 328 330 328 328 328 328 322 323
333 331 330 329 329 330 329 328 328 327 326 327 328 329 328 327 327 327 327 322 324 325 326 324 323 325 328 329 330 329 328 328 325 327 327 327 327 326 324 323 323 323 324
332 329 329 329 330 330 328 328 325 326 326 326 328 328 327 327 328 329 330 329 326 324 325 325 325 325 327 329 329 329 328 327 326 327 324 324 323 324 323 323 323 323 322
329 329 328 328 330 329 328 327 327 326 327 327 327 327 328 328 329 330 330 330 329 326 325 326 326 326 327 327 328 328 327 326 326 324 323 323 323 324 324 323 323 322 321
331 329 329 330 329 328 327 328 328 328 327 327 327 327 327 328 327 330 330 330 329 326 327 328 328 328 329 327 325 327 327 325 324 323 323 323 323 323 322 323 323 321 321
331 329 329 329 328 327 327 327 327 327 326 327 327 327 328 325 324 329 330 330 329 327 327 327 328 328 328 327 326 327 326 324 323 323 323 323 323 322 322 323 322 321 320
330 330 329 329 329 327 328 327 327 327 327 326 327 328 328 327 323 329 330 330 329 327 327 328 329 329 326 326 326 325 324 324 323 323 323 323 322 323 324 323 322 320 318
330 330 330 331 329 328 328 327 327 326 327 327 327 327 328 325 325 328 330 330 329 329 328 329 329 328 327 326 324 324 324 323 322 322 322 323 323 323 324 323 320 316 314
330 331 330 330 329 329 328 328 329 328 328 328 327 327 327 323 326 329 329 329 329 329 328 329 328 327 327 325 325 323 324 324 324 324 323 323 323 324 323 316 314 313 312
331 331 330 330 330 330 329 330 329 329 329 328 329 329 326 324 327 329 330 329 329 329 329 328 328 328 327 326 324 325 324 324 324 324 324 323 323 322 320 316 313 311 313
332 331 331 330 329 329 330 329 330 331 329 329 329 329 325 326 327 329 330 329 329 328 327 327 328 328 327 327 325 325 325 324 324 324 323 321 320 316 316 321 321 318 312
331 330 331 330 331 332 328 329 332 330 329 329 328 328 326 327 328 329 329 329 328 328 327 327 327 327 327 327 326 325 325 324 324 323 322 321 320 315 314 323 324 323 323
331 330 331 331 331 328 325 331 332 329 329 329 328 327 327 328 329 329 329 329 329 328 326 325 325 326 326 327 326 326 324 324 323 323 324 323 322 319 315 323 324 325 326
331 331 332 331 332 332 321 328 328 330 328 329 329 326 328 328 329 328 328 327 327 326 326 324 325 325 326 326 326 325 325 324 324 324 324 324 323 316 318 322 323 324 325
331 332 331 330 332 332 324 328 328 330 330 330 328 328 326 327 328 328 327 327 326 326 326 326 326 326 325 323 324 325 323 322 323 323 323 323 321 320 319 320 323 326 326
330 332 332 331 333 332 329 328 328 327 327 330 329 330 329 326 327 328 328 327 325 326 326 327 327 327 327 325 324 323 323 324 325 324 323 321 316 312 313 317 322 323 324
328 331 332 332 332 332 330 330 328 326 325 325 329 331 330 328 326 327 327 327 325 324 324 323 322 320 319 322 325 326 327 327 328 326 326 325 325 325 325 325 326 326 325
327 328 329 330 331 332 332 329 329 327 325 324 325 328 329 330 326 326 327 327 328 326 323 324 326 326 321 318 325 325 325 326 327 328 328 329 328 327 327 327 326 325 322
327 327 327 327 330 329 332 331 330 330 328 327 324 324 325 327 328 325 326 326 327 327 326 323 324 327 329 328 324 322 323 325 324 327 325 327 325 325 324 324 322 321 322
325 326 326 326 327 329 327 331 330 331 331 329 327 323 323 324 324 323 323 325 326 326 326 327 328 329 329 328 328 328 326 326 326 324 325 325 325 326 326 325 323 322 322
326 326 325 326 327 326 328 326 330 331 331 331 330 327 321 318 322 323 319 319 324 325 325 325 328 329 330 329 328 326 327 327 326 325 325 324 323 323 324 325 325 324 323
326 326 326 325 325 327 325 325 324 326 328 330 330 329 328 326 321 316 318 319 316 315 316 318 321 324 327 326 324 325 325 323 323 324 324 324 323 323 323 322 323 325 324
327 326 326 325 325 325 327 324 324 323 324 325 326 329 329 328 326 324 323 319 314 313 315 315 314 315 316 318 321 322 323 323 322 321 321 321 320 319 319 320 322 323 324
329 327 327 326 327 326 325 326 325 324 323 324 325 325 325 325 324 324 324 324 323 323 321 315 312 314 317 320 321 321 320 321 322 323 323 323 323 322 322 321 320 320 320
332 332 332 328 328 328 327 325 326 325 324 323 323 324 324 324 325 325 324 324 324 323 323 320 317 317 318 316 314 317 322 323 323 323 321 321 321 322 322 322 322 321 321
332 332 332 333 331 329 329 329 326 325 326 324 323 323 323 324 323 323 324 324 324 324 323 323 323 320 320 322 323 324 321 318 321 322 323 322 321 320 319 319 320 321 321

GFSGL_850_thetae_024.txt.gz
Theta_e
332 332 330 330 328 330 327 328 328 327 326 326 328 328 328 327 326 325 325 325 324 324 325 324 326 326 326 326 326 327 327 325 325 326 328 330 330 331 329 329 328 327 326
332 329 328 328 329 329 329 328 327 327 325 327 328 328 328 327 327 328 325 324 325 326 325 325 324 323 325 326 326 327 327 327 326 325 327 330 328 329 329 328 327 326 322
330 330 328 328 328 329 328 328 326 326 326 326 327 328 328 328 327 328 330 329 324 323 324 326 323 325 327 328 328 328 328 327 326 327 326 326 326 325 322 324 323 322 322
330 328 328 328 328 329 328 326 324 326 325 326 326 327 328 328 328 330 330 330 329 324 325 324 325 324 327 328 328 328 327 326 324 327 326 324 323 321 323 323 322 322 321
328 328 328 328 330 328 328 326 326 326 326 326 326 327 327 327 324 329 330 330 329 326 327 327 326 326 327 327 328 327 327 326 325 325 323 323 322 322 322 323 323 321 319
329 328 328 328 328 327 327 327 327 326 326 327 328 326 328 324 324 329 330 329 326 327 328 328 328 328 326 326 324 326 327 326 323 323 323 323 323 323 323 323 322 320 318
330 329 328 328 327 326 326 326 327 326 326 326 327 326 328 327 324 328 330 329 327 327 327 328 328 328 326 326 326 326 326 324 323 324 323 323 323 323 322 322 321 321 319
329 329 329 329 327 326 327 326 327 327 326 326 327 327 327 326 324 329 330 328 327 328 328 329 328 326 326 326 325 325 325 324 324 323 323 324 323 322 322 322 322 321 317
329 329 330 330 327 327 326 327 327 326 326 326 326 327 327 323 326 329 329 329 328 328 329 328 327 326 325 325 325 324 323 323 323 323 323 322 322 322 322 322 322 317 313
330 330 330 328 328 328 327 328 329 328 328 328 328 327 328 323 328 329 329 328 328 328 329 328 327 325 324 324 324 322 323 323 323 323 322 323 323 323 323 323 319 315 313
330 330 330 329 329 328 328 329 328 328 328 328 329 329 324 326 328 330 329 328 328 328 328 328 327 325 324 323 323 323 323 323 323 323 323 323 323 322 318 315 314 313 312
330 330 330 329 328 328 329 329 329 329 328 329 330 329 325 327 328 329 329 329 328 327 327 327 327 327 324 324 324 323 323 324 324 323 323 323 323 319 316 315 313 314 313
331 330 330 330 330 330 328 327 331 329 328 328 328 327 325 328 329 329 329 328 328 327 327 327 327 327 326 325 325 324 324 324 324 323 322 321 319 316 320 323 323 323 322
331 330 331 331 330 328 324 329 329 328 328 327 327 326 327 328 329 329 329 328 328 326 326 327 326 328 327 326 325 325 324 323 322 321 320 319 318 314 315 323 324 324 324
331 330 331 331 330 330 323 326 328 329 329 328 327 325 327 328 328 328 327 328 327 325 324 325 325 325 326 326 326 325 325 323 323 323 322 321 321 321 316 318 323 324 324
331 330 331 331 331 330 323 328 329 329 328 330 329 328 326 327 328 327 327 326 326 324 324 324 325 325 326 325 325 324 324 324 323 323 323 323 322 320 315 316 319 322 324
330 331 331 331 331 331 329 326 326 327 327 329 331 329 326 325 328 327 326 326 326 325 325 325 325 323 322 324 324 324 323 322 322 322 322 322 322 319 318 317 316 319 321
327 329 330 331 331 331 332 328 328 328 325 325 330 330 330 326 326 327 326 325 325 326 326 325 324 324 325 324 323 322 321 321 323 324 325 324 323 321 316 314 314 319 323
325 329 328 329 330 330 331 331 329 329 327 325 325 329 330 328 326 327 326 325 324 324 324 323 322 318 316 319 321 321 323 325 326 327 327 327 327 327 327 326 326 326 325
325 327 327 327 329 330 330 331 332 329 329 328 327 324 326 329 327 326 326 326 324 324 324 323 322 321 319 317 318 325 325 325 325 325 326 327 326 326 327 327 326 326 325
326 325 326 327 327 327 328 329 329 332 330 330 330 328 325 321 324 324 324 325 325 326 324 324 324 322 323 325 326 326 324 324 323 323 323 324 324 325 325 325 325 325 325
327 327 325 325 325 325 325 327 328 328 330 330 330 330 329 326 322 320 321 320 319 323 324 325 325 325 326 327 327 327 327 327 327 327 327 326 325 325 324 324 323 323 323
327 327 326 326 325 325 325 326 326 327 326 328 328 330 330 329 328 326 322 318 317 317 316 319 323 324 324 325 327 328 329 329 328 327 325 324 325 326 325 325 324 324 324
328 327 327 326 326 325 325 325 325 326 325 325 325 325 325 327 328 327 326 325 323 321 319 316 315 315 315 316 319 324 328 327 324 323 324 325 324 323 322 321 321 320 320
331 331 331 328 327 327 326 325 324 326 327 325 324 323 323 324 325 325 325 325 324 324 323 323 322 320 317 314 313 313 314 316 319 321 322 321 321 322 323 323 323 322 322
328 330 333 333 333 330 328 327 326 326 325 326 326 325 323 323 323 323 323 324 324 324 324 324 324 323 323 323 319 316 315 314 314 317 322 323 323 323 322 322 321 322 322

GFSGL_850_thetae_027.txt.gz
Theta_e
333 333 333 331 330 330 330 330 328 326 324 325 326 327 327 327 326 326 326 326 325 322 323 324 325 326 325 325 325 325 326 325 323 326 327 326 330 330 329 329 329 327 325
332 331 328 327 327 328 327 327 327 326 325 327 327 328 328 327 327 329 328 326 325 324 324 325 325 326 326 325 325 326 326 325 324 325 325 327 327 329 329 329 328 327 327
329 326 327 328 328 328 329 327 326 326 326 326 326 327 327 327 327 328 330 329 326 325 325 325 324 323 323 324 325 326 326 326 326 325 328 329 329 328 327 325 327 326 325
327 328 328 327 328 329 328 327 325 326 325 325 325 326 327 327 326 329 330 330 329 324 322 324 325 324 325 326 327 327 327 327 326 326 325 326 325 325 327 324 322 322 321
328 328 327 327 329 329 327 324 325 325 325 325 326 326 327 325 324 329 329 329 329 323 324 325 325 325 327 327 327 327 327 327 325 325 324 324 324 321 322 322 322 322 321
329 328 327 328 329 328 326 325 326 326 325 326 326 326 327 326 324 329 329 327 326 327 327 327 325 327 327 325 327 327 327 326 325 323 323 323 321 322 322 322 322 321 320
330 329 328 328 327 327 326 326 326 325 325 325 327 326 327 327 324 328 329 328 326 327 328 328 328 327 326 326 326 327 326 325 325 324 324 322 321 323 323 322 321 321 320
330 329 328 327 326 325 326 326 326 325 325 326 326 327 327 327 325 329 329 327 326 327 328 328 328 327 326 326 325 325 324 324 324 324 323 322 323 323 321 322 322 321 317
328 329 328 329 326 326 326 325 326 326 326 326 326 327 327 325 326 329 329 328 328 329 329 328 326 325 325 325 325 324 324 323 323 323 323 323 323 322 322 322 321 319 313
328 329 329 329 326 326 326 326 326 327 326 326 327 327 327 324 328 329 328 328 328 328 328 326 325 325 323 323 323 324 323 323 323 323 323 323 323 322 322 322 321 316 311
328 329 329 327 327 327 327 328 328 329 328 328 328 328 328 324 328 329 328 328 328 328 327 326 324 324 324 323 323 324 323 323 323 323 323 323 322 322 322 322 320 314 312
329 329 328 328 328 328 328 328 328 328 329 329 328 329 325 326 328 329 329 328 327 328 327 326 324 324 324 322 323 323 323 323 323 322 322 322 322 323 322 322 318 315 312
329 330 329 328 328 328 329 328 328 329 328 328 329 329 327 327 328 329 328 328 327 327 327 324 324 323 323 323 323 323 323 323 323 322 323 323 322 321 317 315 313 312 312
328 330 330 329 329 329 329 326 330 327 328 327 327 326 325 327 328 329 328 328 327 327 327 326 324 324 324 324 323 323 324 323 323 323 323 323 320 316 316 315 316 318 318
328 330 330 330 330 329 324 327 328 328 328 328 326 326 326 327 329 328 328 328 326 326 327 326 325 325 324 325 324 324 323 323 323 323 323 323 320 316 319 322 322 323 323
327 330 330 330 330 329 322 326 328 329 329 329 329 326 327 328 328 328 327 328 325 325 326 328 327 326 326 324 325 324 323 323 322 321 320 318 317 317 315 314 318 323 324
327 331 330 330 330 329 326 327 328 328 328 328 330 329 327 327 327 327 326 326 325 324 325 325 326 327 326 325 325 324 324 323 321 320 320 320 320 321 321 318 316 318 321
326 330 330 330 330 330 330 325 326 326 326 326 330 330 329 326 328 327 326 325 325 324 324 323 323 324 324 325 325 324 324 324 323 323 323 323 323 322 321 319 317 314 314
325 328 330 330 330 330 330 330 325 326 327 325 327 330 330 327 326 327 326 325 325 325 325 325 325 323 322 322 323 323 322 323 323 323 322 321 321 321 320 318 316 315 315
325 325 327 330 330 330 330 330 330 329 328 327 326 325 328 329 326 327 327 325 325 325 325 325 324 323 321 323 323 322 322 321 320 321 323 325 326 326 326 327 327 327 327
327 325 325 326 330 329 329 329 329 329 330 328 328 328 327 324 322 324 325 326 325 324 324 323 323 322 321 317 316 319 320 319 322 325 325 325 325 325 326 326 326 325 325
327 327 325 324 326 329 328 328 326 327 328 329 330 329 329 326 326 324 321 320 322 324 325 324 323 323 323 321 319 316 317 322 324 325 324 323 322 322 323 323 324 324 324
326 326 327 326 325 326 328 327 326 325 325 327 327 329 330 330 329 329 328 326 322 318 318 321 324 325 324 324 323 322 323 323 322 323 325 326 326 327 327 327 326 326 325
327 326 326 327 327 327 327 327 325 325 325 325 326 326 326 327 328 327 327 328 327 326 323 318 316 316 319 323 324 324 324 325 326 326 327 328 328 328 328 327 326 325 325
330 329 328 327 327 327 327 327 327 326 325 325 326 326 325 324 324 325 324 324 325 325 326 325 323 321 319 316 315 315 317 320 322 324 325 327 328 327 324 322 322 321 321
326 327 330 331 331 329 326 326 326 326 326 326 325 325 325 326 325 324 324 323 323 323 323 324 324 324 323 323 322 322 321 320 317 315 314 315 315 317 320 322 322 321 321

GFSGL_850_thetae_033.txt.gz
Theta_e
342 341 340 337 333 332 332 332 331 330 327 325 323 324 326 327 326 326 326 326 326 325 324 325 324 325 324 324 323 323 323 325 327 325 325 326 324 325 324 325 325 327 328
338 335 333 332 332 332 332 331 329 328 325 323 325 327 327 327 327 327 327 328 327 324 325 323 324 325 325 325 324 325 324 325 327 324 325 327 328 327 325 325 328 329 331
333 332 332 331 329 329 329 328 328 325 324 327 327 327 327 327 327 326 327 329 329 327 324 323 324 325 325 325 325 325 325 325 326 323 325 326 328 329 329 329 328 330 327
331 329 325 327 327 328 327 326 325 325 326 326 326 326 326 326 323 326 329 329 330 327 324 324 325 325 325 325 324 325 325 326 325 326 325 326 327 327 329 329 328 328 325
324 325 327 328 328 328 326 326 326 326 325 325 325 326 327 325 325 329 328 329 328 325 325 324 324 325 323 324 325 325 326 326 325 325 326 326 326 327 327 327 326 324 322
327 327 327 328 329 328 326 326 325 325 325 325 326 326 327 326 326 329 327 328 327 326 324 324 324 325 324 326 326 326 326 326 326 324 325 325 325 326 326 326 323 322 318
327 327 327 328 329 327 325 324 325 325 324 325 326 326 327 325 327 329 326 327 327 326 326 326 325 325 327 327 326 326 326 326 325 325 325 325 325 325 324 324 322 321 320
330 329 328 329 328 326 325 325 325 324 324 325 325 326 326 324 328 328 327 327 328 328 327 326 325 326 326 326 325 325 325 325 325 326 325 325 326 324 324 323 322 321 320
332 331 329 327 327 326 325 325 325 325 324 325 325 326 327 325 329 328 327 327 327 328 328 327 327 325 325 325 324 325 326 325 323 324 324 324 324 324 324 323 321 320 320
333 332 328 327 325 325 325 326 326 325 325 325 326 326 327 324 329 328 328 329 328 326 327 326 326 326 326 325 325 325 323 324 323 323 323 323 323 322 322 321 321 320 319
332 330 328 327 325 326 325 325 325 326 326 326 326 327 327 326 329 328 328 326 328 325 324 325 326 325 325 325 324 323 323 322 323 322 322 322 322 321 321 321 320 322 320
330 330 328 326 325 326 326 326 327 328 328 328 328 328 326 327 329 328 328 326 326 323 323 323 323 324 324 325 324 323 322 323 322 322 321 321 322 321 321 321 321 321 314
329 328 327 327 326 327 327 327 328 328 328 328 328 328 325 327 328 328 327 326 324 323 323 322 323 323 324 324 324 323 323 322 323 322 322 322 321 322 322 321 319 311 310
328 328 326 327 327 328 328 328 328 328 328 328 329 329 326 328 329 329 326 326 324 323 323 323 323 323 323 323 323 323 323 323 323 322 322 322 322 322 321 320 317 313 315
329 328 328 328 328 328 328 328 328 328 328 327 327 327 326 328 330 330 327 326 324 323 323 323 323 322 323 323 323 323 323 323 322 323 322 322 321 321 320 320 320 317 317
328 328 329 329 328 329 327 328 328 328 328 326 326 325 326 328 328 327 327 326 325 324 323 323 323 323 323 323 323 322 321 323 322 322 322 322 322 322 322 320 319 318 318
328 328 329 329 329 329 325 328 328 329 329 329 326 327 328 328 328 327 326 325 325 323 324 323 323 323 323 323 323 322 323 323 322 323 323 323 323 323 321 320 320 320 321
328 327 329 329 329 329 325 329 330 328 326 328 328 326 328 328 327 327 327 326 325 324 324 323 324 324 323 323 323 323 324 323 323 324 324 323 321 320 317 319 320 321 322
327 327 328 328 329 330 328 325 329 327 327 326 330 327 326 327 327 327 327 325 325 325 325 325 324 324 324 324 324 323 323 323 323 323 323 324 323 322 321 319 319 320 321
326 326 326 328 330 329 330 327 325 325 326 325 329 329 327 326 327 326 326 326 324 324 323 323 324 325 325 324 324 323 323 323 322 322 323 322 322 321 321 322 323 324 324
324 324 325 326 328 330 330 330 329 326 325 326 326 325 326 327 325 326 325 325 325 324 324 324 324 323 322 323 324 325 324 324 323 322 323 323 323 323 323 324 325 324 324
325 325 325 324 326 327 329 330 330 330 329 329 328 327 326 326 326 326 325 324 325 325 325 324 324 324 323 322 321 321 322 323 323 323 323 323 323 322 323 324 324 324 326
325 325 326 326 325 326 327 328 330 330 330 329 329 328 329 329 329 329 328 328 327 325 323 323 324 324 323 323 323 321 318 318 319 321 322 322 324 325 324 323 324 325 327
326 325 325 326 326 326 328 328 328 329 331 331 330 328 328 328 328 328 328 328 328 328 327 327 326 323 320 321 323 324 323 323 322 320 317 316 319 320 317 322 324 325 326
327 327 325 325 326 326 326 326 327 327 328 329 329 329 329 328 327 325 325 325 325 326 326 326 327 327 327 326 325 323 321 319 321 323 324 324 323 323 323 323 323 324 324
326 328 325 326 325 325 325 325 325 325 325 325 325 325 325 324 324 324 324 323 323 323 324 324 324 323 323 324 325 325 325 325 325 325 324 324 326 326 326 326 326 326 326

GFSGL_850_thetae_036.txt.gz
Theta_e
345 344 344 343 341 338 338 338 336 335 335 335 333 331 331 331 332 330 329 330 329 327 324 323 326 327 326 328 328 326 328 327 329 328 327 327 327 327 323 325 327 326 326
343 343 342 339 338 338 338 337 335 335 333 331 330 330 331 332 332 332 331 331 328 326 325 325 326 328 327 328 327 324 328 328 328 329 327 326 325 326 323 326 326 326 327
340 339 338 338 338 337 336 335 334 332 331 330 331 331 332 332 332 332 331 329 328 328 325 325 327 328 328 327 329 327 329 328 329 327 326 326 328 327 325 326 329 328 331
336 336 337 336 336 335 334 333 332 331 330 331 331 330 331 331 329 330 330 330 330 329 327 325 326 328 328 329 329 329 329 328 329 326 327 327 327 328 329 329 330 329 326
333 332 332 333 333 333 332 331 331 330 330 330 330 331 331 329 327 329 330 329 330 328 324 323 325 328 327 328 329 327 330 329 329 326 327 327 327 327 328 328 327 326 326
330 331 332 333 333 332 332 331 330 330 330 329 331 331 331 329 326 328 328 329 327 324 325 325 325 325 324 324 325 327 328 328 327 326 326 327 325 327 328 328 327 325 321
330 331 332 332 332 332 330 329 329 330 330 330 331 330 331 325 328 328 327 328 325 325 324 324 323 324 325 325 326 326 329 326 328 325 327 327 327 327 328 327 325 324 322
330 331 332 332 332 330 330 329 330 330 327 325 330 330 330 324 329 328 327 328 328 326 326 326 325 325 326 327 326 327 327 326 326 328 326 326 327 327 326 326 324 323 321
331 331 332 331 330 329 328 329 330 329 325 326 330 329 329 325 329 327 327 328 328 328 327 326 325 326 326 326 326 325 325 325 326 326 325 325 326 326 324 325 323 321 320
332 332 331 330 329 329 329 330 330 329 328 330 330 329 327 326 329 328 330 328 328 327 328 327 326 325 325 325 325 326 325 325 325 325 325 325 326 324 324 324 323 321 321
332 332 331 329 328 328 329 330 330 330 330 330 330 329 327 328 328 328 328 327 326 327 326 327 326 326 324 324 325 325 324 324 324 324 324 325 324 323 323 322 321 321 321
332 331 330 329 328 329 330 330 330 330 331 331 330 328 326 329 329 327 327 326 325 324 325 326 326 325 325 325 324 324 324 324 323 323 323 321 321 321 322 321 322 323 323
332 330 330 329 330 331 330 331 331 330 331 332 330 331 326 331 328 327 326 325 323 323 324 324 324 324 325 323 323 323 323 323 323 322 321 321 321 322 321 321 322 322 319
332 331 330 330 330 331 331 332 331 333 332 331 331 329 325 328 328 327 325 323 323 323 324 324 323 323 324 323 323 323 322 322 322 322 322 322 321 321 322 322 322 315 319
332 331 330 330 331 331 332 331 332 331 331 330 331 330 326 329 327 327 326 323 322 323 323 323 323 323 323 323 323 323 322 323 322 322 322 322 322 322 322 322 319 316 319
331 331 328 328 330 330 330 328 328 328 326 328 328 330 327 328 328 327 326 324 323 323 323 323 323 324 323 322 323 323 323 323 324 323 323 324 324 324 323 322 321 320 319
330 331 329 329 328 329 330 331 329 329 328 326 326 326 328 328 328 326 326 324 324 323 324 324 323 323 323 323 324 325 325 325 325 325 325 325 325 324 324 323 323 322 321
332 331 329 329 329 327 331 331 330 330 331 328 326 328 329 328 327 327 325 325 324 324 324 324 324 325 326 326 326 326 326 326 326 325 326 326 324 324 324 324 323 323 321
331 330 328 329 330 328 327 330 330 330 332 332 326 328 328 328 327 327 325 325 324 324 326 327 326 326 326 327 327 327 327 327 327 327 327 326 325 325 325 323 322 321 321
329 328 329 329 330 330 327 328 330 329 330 331 331 328 327 327 327 327 326 328 327 325 325 326 326 328 327 327 327 327 327 328 327 327 327 327 326 325 324 322 320 319 321
328 329 330 330 329 329 329 327 326 327 329 330 330 328 326 329 327 326 327 327 328 327 327 328 328 328 327 327 328 327 326 326 327 327 327 327 327 327 326 323 322 323 324
327 328 328 328 329 329 330 330 328 327 326 327 329 326 328 330 329 329 329 330 330 329 329 328 327 327 328 328 329 328 328 327 327 327 326 326 326 325 324 324 324 325 325
328 328 327 328 329 330 331 330 330 329 328 327 327 328 327 330 331 331 331 330 329 329 329 329 329 329 328 328 327 327 327 328 328 328 328 327 327 327 326 326 326 325 325
330 330 330 330 330 329 330 331 331 332 331 329 329 328 329 329 331 331 332 333 333 332 332 331 329 328 328 329 329 329 328 328 326 325 326 326 325 325 325 325 325 325 324
329 330 330 330 330 330 331 331 331 332 332 333 332 332 331 331 330 329 329 329 330 331 331 332 332 332 332 331 331 329 328 327 327 327 328 328 328 327 326 325 325 325 324
326 326 326 326 326 326 326 326 326 326 325 324 323 323 324 323 323 323 323 323 325 327 328 328 329 328 328 328 328 328 328 329 329 328 326 326 327 326 326 326 327 326 326

GFSGL_850_thetae_042.txt.gz
Theta_e
346 346 348 347 349 349 349 345 345 343 341 341 339 337 335 334 334 334 333 332 332 330 329 326 324 325 325 326 330 329 326 327 328 327 327 326 327 328 327 328 320 320 321
346 347 348 349 348 348 345 343 342 341 338 337 335 334 334 334 331 331 330 330 331 329 328 328 323 324 325 327 327 327 327 326 327 326 327 327 325 327 329 329 324 323 320
346 346 347 345 344 342 342 341 339 336 336 336 335 333 331 332 332 331 330 331 332 330 330 328 326 324 327 327 327 327 327 326 328 327 329 328 328 328 326 329 327 324 323
344 343 343 342 341 341 339 337 337 336 334 332 331 331 331 330 332 331 332 332 331 330 329 328 326 326 327 327 326 327 327 327 329 328 327 328 331 329 329 331 328 326 329
342 342 341 340 339 339 337 337 334 333 331 332 331 330 331 331 331 330 329 330 331 330 329 327 326 327 328 327 326 326 326 328 329 329 327 328 325 326 327 328 327 327 326
341 340 339 338 338 336 335 332 332 331 331 329 330 331 330 330 329 326 328 328 328 328 327 326 324 326 327 327 326 326 327 327 329 328 329 326 325 325 326 327 327 326 326
338 337 335 334 333 332 332 331 331 330 329 329 329 331 331 329 326 328 328 328 326 326 327 326 326 327 327 327 327 327 327 327 327 326 325 328 327 326 327 326 326 324 325
333 333 333 333 332 332 331 332 331 329 330 330 331 331 329 324 329 327 328 327 325 325 325 325 328 327 327 324 325 327 328 328 327 325 325 327 326 326 327 326 326 325 324
332 333 332 331 332 331 330 331 329 330 331 330 331 331 330 326 328 328 329 329 326 326 325 325 326 330 325 325 328 328 328 327 327 326 326 326 327 327 327 327 325 324 323
332 333 332 330 330 330 331 328 328 330 329 331 331 331 329 328 328 327 329 328 328 327 327 326 326 326 326 329 328 327 327 327 326 326 325 326 327 327 327 326 325 325 322
333 332 332 332 330 328 330 328 329 330 331 331 331 330 329 327 328 328 327 328 328 327 326 325 327 325 326 327 327 327 327 327 326 327 325 326 326 326 326 326 325 325 324
332 331 332 331 328 331 328 328 328 331 329 330 331 330 328 328 327 327 327 326 327 326 327 325 325 324 326 328 327 327 325 325 325 326 325 325 325 325 326 325 325 326 324
331 332 331 331 330 331 328 329 329 329 331 331 330 329 328 327 326 326 326 325 326 325 326 326 324 324 325 325 325 325 325 324 324 325 324 325 325 324 324 325 324 323 322
332 330 329 329 329 329 330 331 330 329 330 330 331 331 329 327 327 325 324 324 324 325 326 325 324 325 325 324 324 323 325 325 324 323 324 324 325 323 324 324 323 322 322
330 330 331 330 330 331 332 331 331 331 330 331 331 330 328 328 327 325 323 323 325 326 325 324 324 324 323 322 323 325 324 323 324 324 325 324 324 323 322 321 321 322 323
331 330 331 331 332 331 329 330 330 330 331 330 330 331 328 328 326 325 324 323 324 324 324 324 323 323 322 323 323 323 324 323 323 323 324 323 324 322 323 324 325 325 322
330 331 330 330 332 332 330 328 328 328 329 330 330 329 328 327 326 324 323 324 323 323 324 324 323 322 322 323 325 323 323 323 323 323 323 323 323 323 323 323 323 320 320
330 329 329 332 332 331 331 331 329 327 327 330 329 328 327 326 325 324 323 323 324 325 324 324 324 324 324 324 326 325 325 324 324 324 324 324 323 324 324 324 322 321 320
329 328 330 329 331 330 331 331 332 330 329 327 328 328 326 325 324 324 323 325 325 324 323 324 324 324 325 326 326 325 326 324 325 324 324 325 324 325 325 325 324 323 323
329 330 329 329 330 329 332 331 332 331 329 328 328 327 326 325 324 324 325 326 327 327 325 325 325 324 326 326 326 327 325 325 326 326 325 325 326 326 326 326 324 324 325
329 330 330 331 330 330 329 330 333 332 330 331 329 327 327 326 325 324 325 327 328 328 327 326 325 326 326 327 327 327 326 326 326 326 326 326 324 326 326 325 326 326 326
327 329 330 329 329 331 330 329 330 332 331 330 327 327 328 326 324 325 326 328 329 329 328 327 327 326 327 326 326 326 326 326 327 326 327 326 326 327 328 327 326 326 325
327 327 330 330 329 328 329 329 330 331 330 326 330 330 330 330 330 330 330 329 329 330 330 330 329 329 328 329 329 328 327 328 329 327 327 328 328 328 329 328 328 328 327
328 326 329 329 329 329 331 331 330 331 331 328 330 330 331 330 331 331 330 330 331 330 329 329 329 328 327 328 328 328 328 328 328 329 329 328 328 329 328 327 327 327 326
329 332 331 330 331 332 330 330 330 330 329 329 329 330 330 330 330 330 330 330 330 330 330 330 330 329 329 330 329 329 329 329 327 326 327 328 328 328 329 330 330 330 329
330 332 330 330 331 329 330 330 329 329 329 329 329 328 328 328 327 328 328 330 330 330 329 330 330 330 329 330 330 329 328 328 328 328 327 327 327 327 327 328 329 329 328

GFSGL_850_thetae_045.txt.gz
Theta_e
330 331 332 336 339 346 350 349 342 341 341 342 342 342 339 338 335 334 333 330 331 331 330 329 327 325 323 325 326 328 328 325 325 327 326 326 326 324 325 326 324 320 321
338 343 343 343 347 351 348 343 343 343 343 342 341 339 336 333 332 333 332 331 332 331 331 329 328 325 325 325 326 328 327 326 327 327 326 328 328 326 327 327 320 321 321
343 344 346 347 348 347 347 345 344 342 340 338 333 332 331 331 329 329 330 330 329 330 330 329 328 325 325 326 327 327 326 326 327 326 327 326 326 326 328 324 322 322 322
344 346 346 346 347 345 345 343 341 338 334 335 334 332 330 331 330 332 331 331 331 331 330 330 328 327 324 327 326 327 326 327 327 327 327 326 326 327 328 326 325 325 324
345 345 346 345 343 341 340 338 335 336 333 333 330 331 330 329 330 329 330 329 330 330 331 329 328 326 325 327 326 327 327 327 328 327 327 326 326 327 327 327 326 327 326
344 342 341 341 340 338 335 334 334 331 330 331 331 329 329 329 329 330 325 328 327 329 329 328 325 326 327 327 326 326 326 327 328 328 327 328 326 326 325 327 326 324 325
341 341 340 338 337 335 332 330 330 330 332 330 329 329 328 329 330 326 327 327 326 327 327 326 325 327 327 326 326 326 326 327 327 328 326 326 323 325 325 326 328 326 325
338 337 337 335 334 331 330 330 331 330 329 328 328 328 329 327 325 327 328 326 325 326 326 326 327 327 327 326 326 327 327 328 327 326 326 323 324 324 325 326 325 324 324
336 335 334 331 330 330 330 331 330 328 329 328 329 330 328 323 328 327 329 326 325 325 325 327 327 327 325 325 326 328 327 326 326 324 324 325 324 324 325 326 325 324 324
333 332 331 330 330 330 331 331 329 328 330 330 329 329 327 327 327 328 328 328 326 326 325 325 326 325 326 326 327 327 326 326 326 326 325 326 325 324 326 326 325 325 324
333 331 330 329 330 329 331 329 328 329 328 330 330 329 326 328 328 328 327 327 327 327 327 325 326 325 327 328 327 326 326 325 325 327 325 326 326 325 326 326 326 326 324
331 330 329 329 329 328 328 327 329 331 331 330 330 328 326 327 327 327 326 326 326 326 325 326 325 325 328 327 327 326 325 325 324 324 323 324 325 325 326 326 325 324 323
331 331 330 328 328 328 328 328 328 330 330 330 330 328 326 326 326 326 325 325 325 325 325 325 324 325 325 326 327 325 324 324 324 324 323 324 324 325 326 324 325 324 324
331 330 329 329 329 328 328 328 328 329 330 330 329 328 327 326 326 324 324 325 326 324 326 324 324 325 325 324 324 324 323 323 324 323 324 325 323 323 324 324 324 324 322
329 330 330 330 329 328 329 330 329 329 330 329 329 329 328 327 325 323 323 323 324 325 325 324 324 324 324 323 323 322 322 323 322 322 324 324 324 323 323 324 324 322 322
328 328 329 328 329 330 330 330 331 329 329 331 330 329 327 327 324 323 323 324 326 325 324 324 325 324 323 322 322 323 323 323 323 323 323 323 324 323 323 323 322 322 322
328 328 328 330 330 329 329 329 330 331 330 330 330 328 327 326 324 323 323 324 324 324 324 324 323 322 321 322 323 323 323 323 323 324 324 324 324 322 322 321 321 322 322
329 328 330 330 330 328 327 327 327 329 330 330 329 328 326 324 323 323 324 323 324 324 323 322 322 322 322 324 323 323 323 323 323 323 323 324 324 322 324 324 323 322 320
330 330 330 331 331 331 330 329 326 327 329 329 328 326 325 323 323 323 324 324 323 324 324 324 323 323 324 324 324 324 324 323 323 323 323 323 323 323 323 323 322 322 320
330 330 331 331 331 331 331 331 330 328 327 328 326 325 324 323 323 324 324 324 324 323 323 323 323 324 324 325 325 325 325 323 324 323 323 324 323 323 325 325 324 325 324
329 329 330 329 330 330 331 330 329 327 328 328 326 325 324 324 323 325 326 327 326 325 324 324 324 325 326 326 327 326 325 324 325 326 325 325 325 324 325 325 325 326 324
329 329 330 330 329 331 331 331 330 330 330 326 326 326 325 324 324 325 327 328 328 327 326 325 325 326 326 327 327 327 327 326 326 326 325 325 326 324 325 325 325 325 325
329 330 330 330 330 329 331 332 331 331 331 326 326 326 325 325 325 326 326 327 328 328 328 327 326 326 327 327 327 327 327 327 327 327 327 327 327 327 327 327 328 328 327
330 330 330 330 331 331 330 331 331 330 327 329 329 328 330 330 330 330 330 329 330 329 329 329 329 329 328 328 328 328 328 328 327 328 328 328 329 328 329 328 328 327 328
328 330 330 330 331 331 330 331 330 329 329 329 329 329 330 328 329 329 328 327 327 327 328 327 326 326 326 326 326 326 327 327 327 327 328 328 327 327 328 327 328 328 328
328 328 328 326 330 329 330 330 330 330 330 329 329 329 329 328 327 326 326 326 326 326 326 326 325 325 324 325 325 325 325 326 327 327 327 327 327 326 326 325 325 325 325

GFSGL_850_thetae_048.txt.gz
Theta_e
324 323 324 325 332 332 329 329 343 345 346 345 338 340 340 340 340 340 337 334 333 332 331 331 330 328 328 327 325 326 327 327 326 326 326 326 327 328 326 326 328 326 317
324 324 327 332 333 332 331 331 341 347 342 340 340 341 341 339 336 333 332 332 331 330 331 330 329 328 326 324 324 325 327 327 326 327 326 326 327 328 326 326 326 324 321
327 330 334 333 334 337 340 349 346 341 341 341 342 341 338 334 331 330 329 329 329 330 330 330 330 329 326 324 325 326 328 326 326 326 326 328 325 326 327 326 322 321 322
329 335 339 342 343 343 350 344 341 342 341 341 337 332 330 331 329 328 330 330 329 329 329 330 330 329 327 325 326 327 327 327 326 327 327 328 327 327 327 322 321 322 321
342 339 342 344 346 347 344 342 340 340 336 332 332 332 329 329 329 329 330 330 329 328 330 330 330 328 327 324 327 327 327 326 326 327 326 326 326 326 328 322 322 325 327
339 341 343 343 343 344 344 341 338 335 335 333 332 328 331 328 329 329 330 330 326 328 330 329 327 328 325 324 327 326 326 326 327 326 326 325 325 328 326 324 323 324 325
341 342 342 344 342 342 338 336 335 333 333 331 330 330 328 328 329 329 328 327 327 327 328 327 326 326 327 327 326 326 326 326 327 327 327 325 325 325 326 325 324 323 323
341 342 340 340 338 336 335 333 329 328 329 331 330 328 328 328 329 326 327 326 326 327 327 325 326 327 326 326 326 326 326 327 327 328 328 326 324 325 324 325 324 324 325
341 340 339 337 334 331 329 329 328 331 331 328 328 327 329 328 324 327 328 325 325 326 326 326 327 326 326 326 326 326 327 327 327 326 326 325 323 321 324 325 324 322 323
339 337 335 333 331 329 328 329 330 329 328 328 328 330 328 324 327 327 329 326 325 325 327 327 326 326 326 325 326 327 327 326 325 323 323 322 323 323 324 325 326 324 323
335 334 333 331 329 328 329 330 329 328 328 329 329 329 326 326 327 327 327 327 326 326 325 326 325 325 326 327 327 326 326 324 324 324 325 324 323 323 324 324 325 324 323
331 331 330 329 329 329 329 329 328 329 329 329 329 328 326 326 327 327 326 326 326 327 326 325 324 326 326 326 326 325 325 324 323 322 324 325 324 324 325 325 325 324 324
331 330 330 329 329 329 328 328 327 328 329 329 329 327 324 326 327 325 325 325 324 324 325 326 324 325 326 326 326 324 324 323 322 324 323 324 323 325 325 325 324 324 324
329 328 329 329 328 327 327 327 328 329 330 329 330 328 326 324 325 325 324 324 324 324 325 325 324 325 325 325 326 324 323 323 323 323 323 323 324 324 325 325 324 323 323
330 328 327 327 327 327 327 328 327 328 329 328 329 328 327 325 325 324 324 323 323 324 325 324 326 326 327 324 323 322 323 323 323 322 324 323 324 324 325 323 324 324 324
329 328 329 328 328 327 328 329 329 329 329 330 329 329 327 326 323 323 323 324 324 325 324 324 323 323 322 322 322 321 322 321 321 322 322 322 322 321 324 324 324 323 323
327 329 329 328 328 329 329 329 330 330 329 331 331 330 327 325 323 321 323 324 325 324 323 323 323 322 321 321 321 321 322 322 321 321 322 323 322 323 323 324 324 323 322
328 327 328 329 330 329 329 330 329 329 330 330 328 327 325 323 323 323 324 324 324 324 324 323 322 321 321 322 322 323 323 323 323 323 324 324 324 324 323 323 322 322 321
328 328 329 329 328 328 329 329 329 330 329 329 327 325 323 322 323 323 324 324 324 324 322 322 321 322 323 323 323 323 323 323 323 323 323 323 324 322 323 323 323 323 322
328 330 329 329 329 327 326 326 329 330 329 327 325 324 323 323 323 324 324 324 323 324 323 323 322 323 324 324 324 323 323 323 323 323 323 323 323 322 323 323 323 323 323
330 330 330 329 330 330 329 327 327 329 328 325 324 323 322 323 323 324 325 324 324 323 323 323 323 323 324 325 325 325 324 323 324 323 323 324 323 323 323 323 324 324 324
329 330 330 329 330 330 330 329 327 327 327 325 323 323 323 324 324 325 326 326 325 325 324 323 324 325 326 327 327 326 326 325 326 326 327 327 326 325 324 324 324 325 325
329 330 330 329 329 329 330 328 327 327 326 325 324 324 323 323 323 325 326 326 327 326 325 325 326 326 327 326 326 327 327 327 327 327 326 326 327 327 327 327 327 326 327
329 330 330 330 329 329 329 330 329 326 326 325 325 324 324 324 324 326 326 327 327 328 327 326 326 326 327 327 327 327 327 327 327 327 327 328 328 328 327 327 328 327 327
330 330 330 330 329 329 329 329 327 326 325 326 326 325 327 327 328 328 328 328 327 328 328 328 328 327 327 327 327 327 327 327 328 327 327 327 327 327 326 326 326 325 324
329 329 329 329 329 329 329 328 327 329 328 327 328 328 328 327 327 326 325 324 324 324 325 325 325 324 324 325 325 325 325 325 325 325 324 324 324 325 323 322 321 318 315

GFSGL_850_thetae_051.txt.gz
Theta_e
322 322 322 323 324 323 323 325 328 330 333 345 346 345 344 340 337 337 338 338 338 336 334 332 331 329 329 330 330 329 327 326 327 325 325 325 327 327 326 326 325 327 322
322 323 323 323 323 323 324 326 332 330 342 345 346 344 340 338 338 339 339 338 334 332 331 330 330 329 328 327 326 325 326 326 327 325 326 326 327 327 328 328 328 327 317
322 324 323 322 323 325 330 334 333 340 343 345 343 339 339 339 339 335 333 330 331 329 329 330 330 329 329 327 324 324 326 327 326 326 326 326 327 328 325 325 326 325 319
325 325 325 325 328 332 334 333 332 337 345 340 339 340 340 337 333 330 330 329 328 328 329 329 330 330 329 328 324 324 326 327 326 326 326 326 325 326 326 326 325 320 321
329 326 329 331 333 333 335 338 341 344 340 340 341 340 333 331 329 328 328 330 329 329 329 330 330 330 329 328 324 325 326 327 326 326 326 328 326 326 327 326 321 322 323
337 336 330 332 335 341 340 342 342 341 341 340 332 331 330 328 329 328 329 330 330 327 326 329 330 329 329 327 326 327 326 326 326 327 327 327 327 326 326 323 320 321 324
336 336 337 337 341 343 343 342 340 340 333 332 330 329 327 330 328 328 328 329 326 327 327 328 328 327 327 325 324 327 327 326 326 326 326 326 325 325 326 321 320 321 324
335 335 336 339 341 342 342 341 336 334 334 332 328 328 328 327 328 328 328 326 326 326 327 327 326 326 326 327 327 326 326 326 326 327 326 326 325 325 325 324 321 323 323
335 336 338 340 341 342 340 336 334 333 331 328 329 328 327 327 328 328 326 326 325 326 326 325 327 327 326 326 326 326 326 326 327 328 328 327 325 324 324 324 322 322 322
335 336 337 340 338 336 335 333 329 325 328 331 327 327 327 328 326 326 327 325 325 326 325 327 327 326 325 326 326 326 326 327 327 327 327 326 325 325 324 324 323 322 323
336 337 338 336 334 332 329 327 326 331 331 328 327 328 329 326 325 327 328 326 325 325 327 327 326 326 326 326 327 327 326 326 325 325 324 324 323 322 323 323 324 323 321
337 336 333 330 330 327 327 328 330 329 328 328 329 328 327 326 328 328 326 326 326 325 325 326 326 325 325 326 326 325 325 323 322 322 321 321 321 322 322 324 324 323 324
334 333 331 329 326 327 328 329 328 328 328 329 328 328 326 327 326 326 325 325 325 326 326 325 324 325 325 325 325 325 324 323 322 321 322 324 322 321 322 323 324 324 324
330 328 327 328 329 329 329 328 328 328 328 328 328 327 324 325 324 324 324 325 324 324 325 325 324 325 325 324 325 324 323 323 322 322 322 323 322 323 323 324 323 323 323
329 329 329 329 329 329 328 327 326 327 328 329 329 328 326 323 324 324 323 323 323 323 325 325 326 324 325 325 324 323 322 323 322 323 323 323 322 324 323 324 323 323 323
329 329 328 328 328 327 327 326 328 328 329 328 329 328 326 325 324 323 323 323 323 324 325 324 325 323 324 325 324 322 323 323 322 323 323 323 323 324 324 323 323 323 323
327 327 327 327 327 327 327 327 328 329 329 330 329 328 326 325 323 323 323 324 324 324 325 325 324 323 322 321 321 321 321 321 321 321 322 323 322 322 323 324 324 324 324
327 327 327 327 327 327 327 328 328 329 330 330 329 327 324 322 321 323 323 323 323 324 323 323 322 321 321 321 321 320 320 320 320 321 322 322 322 321 322 323 324 324 323
328 329 329 328 328 328 329 329 330 329 330 329 326 324 322 322 323 324 324 324 324 323 324 323 322 321 321 322 322 322 323 322 322 323 323 323 323 324 323 323 323 322 322
327 328 329 329 329 329 329 330 329 329 328 325 324 323 322 323 323 323 323 324 324 324 323 321 321 322 323 323 323 322 322 322 322 323 323 323 324 323 322 322 322 323 322
328 329 328 327 328 329 329 329 329 329 327 325 324 322 323 323 324 325 325 323 324 323 322 322 322 324 325 325 325 324 323 323 323 323 323 323 323 322 322 322 323 323 324
329 329 329 329 328 327 328 329 329 328 326 324 323 322 323 324 324 325 324 324 323 323 323 323 323 323 324 325 325 325 325 325 324 325 325 325 324 324 324 323 323 324 324
330 328 328 329 329 329 327 328 328 327 324 323 322 322 323 324 324 326 326 325 325 323 323 324 325 325 326 326 326 326 326 326 326 326 326 326 326 326 326 326 326 326 327
330 329 328 329 330 329 328 326 327 325 322 322 322 323 323 324 324 326 326 325 325 325 325 325 325 326 326 326 326 326 326 326 327 326 326 327 326 326 327 326 325 326 326
329 329 329 329 329 328 327 326 326 325 323 322 322 323 323 324 324 326 326 327 327 326 326 326 326 326 326 326 327 327 327 326 326 326 326 326 326 326 326 326 325 325 324
329 329 329 328 329 329 328 326 325 324 325 323 323 323 323 323 324 325 326 326 326 325 326 326 325 323 323 323 323 324 324 324 324 324 324 323 323 323 322 320 316 313 312

GFSGL_850_thetae_057.txt.gz
Theta_e
316 317 316 316 316 319 323 325 326 327 334 337 339 331 328 327 334 344 343 339 337 336 335 336 336 333 331 332 334 332 331 330 330 328 326 325 325 325 325 325 326 325 326
315 317 318 316 317 318 321 324 324 325 329 335 335 330 328 329 342 344 341 338 336 335 336 338 335 333 334 332 330 328 330 330 330 330 326 325 326 326 326 325 326 327 326
321 321 320 318 318 317 321 321 321 325 329 334 333 328 330 336 344 342 340 336 335 336 337 337 335 334 332 330 328 327 327 327 326 329 326 326 326 326 327 326 327 326 326
326 325 323 321 320 318 321 321 321 322 325 330 328 330 333 340 343 342 335 336 337 337 335 332 332 330 330 329 328 328 326 324 325 327 326 326 329 327 327 326 326 326 320
324 326 324 324 325 323 322 322 322 323 328 327 330 334 340 342 343 336 336 336 331 329 330 329 329 329 330 330 329 329 326 325 326 328 326 326 327 327 327 327 327 324 320
323 325 328 329 333 329 323 322 323 326 327 330 334 337 341 342 337 337 336 329 328 328 328 328 328 329 329 329 330 329 326 324 327 329 327 325 327 327 325 325 326 322 327
323 326 331 334 334 326 322 323 326 327 333 336 339 339 340 337 338 332 328 327 329 329 329 329 327 327 328 330 329 329 326 325 327 327 326 325 326 326 327 326 325 323 323
324 328 337 338 334 326 324 326 333 337 337 337 339 339 338 336 329 328 327 328 329 328 327 327 327 328 329 329 329 327 326 327 327 327 326 326 327 325 326 326 324 322 321
325 330 336 337 337 336 333 337 336 334 335 340 339 339 335 328 329 328 328 328 328 326 326 326 327 328 327 327 327 327 326 327 327 326 326 327 326 326 325 326 325 322 324
325 330 335 336 342 340 337 335 335 338 340 340 335 329 327 329 328 327 328 327 326 325 326 326 326 326 326 326 325 325 326 327 326 327 327 326 325 325 325 325 323 323 322
327 330 337 339 341 337 337 337 339 339 335 331 329 327 328 327 327 327 326 326 325 326 326 326 327 327 326 326 327 326 326 326 326 327 327 326 325 325 324 324 323 325 321
327 335 335 336 337 336 336 338 337 333 330 329 329 329 327 327 327 326 326 325 325 326 327 327 326 325 326 326 326 326 326 327 327 327 327 326 325 323 323 323 323 322 323
330 335 333 333 334 337 337 334 332 331 329 329 328 327 327 327 324 325 326 325 325 326 327 326 326 326 326 326 326 326 324 324 325 325 324 324 323 323 322 322 322 322 322
332 333 333 333 335 335 334 333 331 329 329 327 327 327 327 325 324 325 325 325 325 325 326 326 326 325 324 324 324 323 322 322 322 322 322 322 322 321 321 322 323 324 323
332 332 333 334 334 333 332 330 327 328 327 327 327 328 327 325 325 325 324 324 324 326 326 325 325 324 324 324 324 322 322 322 321 321 321 321 321 321 321 323 324 322 322
331 332 332 331 330 329 327 330 330 327 327 327 328 327 325 325 323 324 324 324 323 325 325 325 325 324 323 323 323 322 322 322 322 322 322 321 322 321 322 323 323 323 323
331 332 329 327 327 329 330 329 327 328 328 327 326 325 323 323 323 323 324 323 323 324 325 324 324 324 323 323 323 322 321 322 322 323 323 323 322 322 322 323 323 322 322
331 328 326 327 328 328 328 327 327 328 328 327 326 325 324 323 323 322 323 323 324 324 324 324 325 324 323 323 323 322 321 321 321 322 323 323 322 322 323 323 323 323 323
328 327 326 328 328 327 326 327 329 328 328 327 326 324 323 322 322 321 322 323 323 324 324 323 323 322 321 321 321 321 321 320 320 321 322 323 322 322 322 322 322 323 322
328 328 327 327 326 325 327 327 328 329 328 327 324 322 321 321 322 321 322 323 322 324 323 322 321 321 321 321 321 320 320 320 320 320 321 321 322 322 323 323 323 323 323
328 327 326 326 326 326 327 328 328 328 327 324 322 321 322 321 322 323 323 323 323 323 322 321 321 322 323 322 322 322 321 322 323 323 323 324 324 324 323 322 322 322 322
327 327 327 327 327 328 328 328 328 326 324 322 321 321 321 323 324 323 324 324 323 322 321 321 324 323 324 323 323 323 323 323 323 323 323 323 323 323 323 323 322 323 325
328 327 327 328 328 327 328 328 327 324 322 322 322 322 324 324 323 323 323 323 322 321 322 322 323 324 325 325 324 324 324 324 324 324 324 324 324 324 325 325 325 325 324
328 328 328 328 328 327 326 326 324 323 322 323 323 324 324 323 323 323 323 322 322 322 322 323 323 324 325 325 325 325 325 325 325 325 326 325 325 325 325 325 324 324 324
328 327 327 328 328 325 326 325 323 322 322 322 323 324 324 325 324 324 323 323 323 323 323 324 325 325 325 325 325 325 325 324 325 324 325 325 324 324 324 324 323 322 321
328 328 327 327 327 325 326 324 323 322 322 322 323 324 324 325 324 324 323 323 323 324 324 324 324 323 323 323 322 322 322 322 322 323 322 322 321 320 319 318 315 313 309

GFSGL_850_thetae_060.txt.gz
Theta_e
323 323 321 315 314 315 317 319 321 326 326 327 329 334 338 339 333 327 339 344 342 345 342 338 338 339 338 336 335 334 336 334 331 333 331 327 325 325 326 326 328 329 326
321 324 323 321 318 315 317 320 321 332 337 342 343 340 341 340 331 331 344 346 346 343 341 338 340 336 336 337 336 336 334 333 332 332 330 327 325 328 326 327 326 327 326
318 323 326 325 325 317 314 317 323 333 340 334 343 342 343 344 345 346 345 345 344 341 337 335 339 339 337 336 336 334 334 333 333 332 331 327 326 327 327 327 327 327 328
317 321 325 328 330 324 317 318 333 335 338 336 342 343 343 345 346 346 346 345 343 339 340 339 339 337 337 336 335 334 334 333 332 330 330 330 327 327 327 327 327 327 326
317 320 324 327 330 331 330 327 335 336 337 340 343 343 344 345 345 346 345 344 342 341 337 337 337 337 335 335 334 333 333 332 331 331 330 329 326 328 327 327 327 327 324
318 321 323 326 328 331 333 335 337 337 338 340 342 343 345 343 343 343 344 342 338 338 335 335 336 330 329 329 329 331 331 332 331 326 328 329 327 328 329 327 327 326 324
318 320 324 326 328 331 333 336 337 338 340 341 343 344 344 344 341 339 338 336 335 334 335 335 334 333 329 330 330 330 329 327 325 330 330 330 329 326 327 327 326 326 327
318 321 323 326 328 331 335 337 339 340 342 342 343 344 345 342 339 337 337 335 334 335 335 334 333 331 327 331 330 330 329 327 325 328 327 330 327 326 327 326 326 326 326
318 321 323 328 330 335 336 338 338 340 343 342 345 346 344 339 338 335 328 334 334 334 334 332 330 329 329 329 329 329 328 326 327 327 328 328 327 325 325 326 326 325 326
318 320 325 328 330 336 337 336 340 343 345 346 345 340 338 338 331 328 330 331 334 332 330 331 328 332 328 328 328 327 327 327 327 327 327 327 326 325 326 326 325 326 326
318 321 326 328 334 336 335 335 340 346 344 340 338 338 335 329 329 329 329 332 331 330 330 330 328 327 327 326 326 326 326 327 327 327 327 326 326 326 325 326 325 326 324
319 322 327 329 335 335 336 338 341 340 338 338 338 333 328 329 329 328 328 330 329 330 329 331 327 326 326 327 326 326 325 326 327 327 327 326 325 325 325 324 324 326 325
323 325 328 333 335 337 339 340 338 337 339 333 327 327 330 328 328 327 326 326 329 330 330 327 326 326 326 326 326 325 326 327 327 327 326 326 325 324 324 324 323 322 324
324 328 332 335 337 336 338 337 335 334 330 328 329 330 330 329 327 326 325 326 328 329 327 326 326 327 326 327 326 325 325 326 326 326 326 325 325 324 323 323 323 323 325
325 332 334 333 334 334 334 333 331 330 329 330 330 330 329 329 329 327 327 327 328 327 327 326 325 325 325 324 323 323 322 324 324 324 323 323 323 322 322 323 323 323 324
331 332 333 333 333 332 332 330 330 329 330 330 330 330 329 329 325 325 325 325 325 326 326 326 325 327 324 324 324 322 323 323 324 324 323 322 322 323 322 322 324 323 325
331 330 331 331 331 331 331 330 329 328 328 328 328 328 327 326 324 324 325 324 325 326 326 325 325 324 324 324 323 323 323 322 322 322 323 325 324 322 322 323 323 323 323
330 331 332 331 331 330 329 328 328 327 326 326 325 324 324 324 324 324 324 324 325 325 325 325 325 325 324 324 324 323 322 322 322 323 323 323 322 322 322 322 323 324 323
330 331 330 330 330 331 330 329 329 328 326 325 324 324 323 323 323 324 323 324 325 324 325 324 324 324 323 323 323 322 322 321 321 322 323 323 322 322 323 323 323 324 323
330 330 330 330 330 330 328 329 327 327 326 324 323 324 323 323 323 323 323 324 324 324 324 326 326 326 324 323 323 323 321 321 321 321 322 323 323 322 322 322 324 323 323
329 329 329 329 328 329 329 327 327 327 325 323 323 323 322 322 322 322 321 323 324 324 323 323 324 325 325 324 323 321 321 322 322 321 321 321 322 322 325 324 322 324 323
329 329 328 328 328 327 327 325 326 327 325 323 321 321 321 322 322 323 322 323 323 324 323 323 322 322 324 324 324 324 323 323 323 323 323 323 325 324 324 323 324 324 323
330 330 329 329 327 327 328 328 327 326 323 322 322 322 322 323 323 323 323 323 321 321 322 323 323 324 323 323 323 324 325 325 325 325 324 323 323 324 324 325 326 325 324
328 327 326 327 327 328 328 325 322 322 322 322 322 322 323 323 324 323 324 323 322 322 322 323 323 324 325 325 324 323 324 325 325 325 324 325 325 324 325 324 323 324 324
328 327 327 327 327 327 327 324 322 321 322 323 324 323 323 323 323 323 322 321 321 322 323 323 324 325 325 324 325 325 324 324 325 324 324 324 324 324 323 322 323 322 320
327 327 327 327 326 326 325 323 322 322 323 324 323 323 323 323 322 323 322 322 322 322 323 325 324 324 324 324 323 322 322 323 323 323 322 321 321 320 319 317 315 312 307

GFSGL_850_thetae_063.txt.gz
Theta_e
319 320 321 325 326 324 323 324 318 315 317 327 337 335 335 336 342 348 347 347 343 342 343 347 346 346 345 341 340 339 338 336 334 333 335 334 331 326 329 328 327 329 328
318 318 319 322 326 326 323 322 318 322 327 327 335 335 336 339 346 349 346 345 348 348 347 347 347 345 341 342 340 338 337 336 333 332 335 334 329 330 330 328 329 327 329
317 318 318 319 324 327 327 326 322 323 332 336 341 344 344 348 350 349 347 346 348 348 348 347 345 343 341 340 338 337 336 335 335 335 334 332 332 330 329 328 328 328 328
317 317 318 319 322 326 328 329 327 328 332 336 340 344 346 348 348 349 348 347 348 347 346 345 343 341 341 337 339 336 336 335 334 332 332 332 329 329 328 328 328 328 328
316 317 318 319 321 325 328 329 329 328 331 335 339 344 346 347 346 349 348 347 346 346 345 343 342 343 339 337 335 335 334 335 333 331 331 332 331 328 328 330 329 329 327
316 316 318 319 321 324 327 328 331 330 332 336 338 343 345 345 344 347 347 347 346 344 343 343 342 338 337 336 335 335 334 331 332 331 331 332 329 328 328 328 328 327 327
315 316 318 318 320 323 326 328 329 332 333 338 339 342 344 344 344 345 346 346 344 342 342 341 340 338 335 335 331 330 330 330 330 331 329 327 331 328 328 329 328 328 329
315 315 317 318 319 323 325 327 328 332 335 339 340 343 344 346 345 344 343 344 342 341 340 338 336 335 333 334 332 331 331 330 329 327 328 330 331 329 328 328 328 328 328
314 315 317 318 320 323 324 328 329 333 335 340 342 344 343 346 344 343 341 340 339 339 337 336 336 335 335 331 332 331 332 330 329 326 326 327 328 327 329 329 326 326 327
313 316 317 318 320 323 324 329 329 334 337 340 342 343 347 342 340 340 338 337 337 336 335 334 333 332 333 329 330 331 329 329 326 326 327 327 327 326 326 327 327 327 327
315 316 318 318 319 323 326 329 333 336 339 341 342 345 344 340 339 337 337 335 335 334 333 331 331 329 330 328 328 329 328 327 327 328 328 327 326 325 326 326 326 327 327
316 317 316 318 320 323 328 331 337 335 335 341 342 342 341 339 337 330 331 333 332 331 331 332 331 327 327 326 326 327 326 327 327 327 327 329 327 326 325 326 325 326 327
316 316 317 317 319 327 330 335 335 335 339 341 340 337 336 335 329 328 329 332 329 332 330 330 328 327 327 327 326 326 326 326 326 327 327 327 326 327 326 326 326 326 326
317 316 314 317 324 329 334 335 336 338 339 338 336 335 333 331 329 328 328 328 330 331 330 328 327 326 326 326 325 326 326 327 327 327 327 325 326 326 325 325 326 324 327
318 318 321 324 328 331 335 336 338 338 338 336 335 333 330 329 329 329 329 330 331 330 328 326 326 327 327 327 326 326 327 327 328 326 327 326 326 325 325 326 327 327 326
321 324 325 330 334 334 334 336 336 336 334 333 332 331 330 330 329 328 328 329 329 328 328 329 328 329 327 327 327 327 327 326 327 327 327 326 325 324 323 325 326 326 326
325 325 331 331 333 333 335 334 331 331 331 330 330 330 330 330 329 327 327 328 327 327 329 328 328 328 327 327 327 326 326 326 326 326 325 326 323 325 325 326 325 326 326
321 331 332 333 333 332 331 329 330 330 330 330 330 330 329 329 326 325 326 326 326 327 328 329 329 328 328 327 326 326 326 325 326 325 326 327 324 325 325 324 325 325 323
329 332 332 332 331 330 330 329 330 330 329 329 328 327 326 324 324 325 325 326 327 327 327 327 326 325 327 327 327 326 325 325 324 324 323 323 323 323 324 324 324 323 324
332 332 331 330 329 328 329 330 329 328 326 326 324 324 324 324 324 324 325 327 327 327 326 326 326 327 327 327 326 325 324 323 322 323 324 324 323 323 323 324 323 324 324
330 330 329 328 328 330 330 330 329 328 328 326 323 323 323 324 324 325 324 325 325 325 325 324 326 326 326 325 325 325 323 323 323 323 323 323 324 324 322 324 324 326 324
330 331 331 330 330 330 329 328 328 327 325 323 323 323 323 325 324 324 324 324 324 324 325 325 326 325 325 326 324 323 325 326 325 324 324 325 325 325 324 325 323 325 323
329 329 330 330 330 329 328 328 327 325 323 323 322 323 323 323 323 322 323 324 324 323 323 323 324 324 324 324 325 325 326 325 326 325 325 325 324 325 325 326 325 325 325
330 330 329 328 329 329 327 325 323 322 321 321 321 321 322 322 322 322 323 322 322 321 320 321 322 322 323 323 324 324 325 324 324 326 325 326 325 325 325 324 324 323 322
330 329 326 328 328 327 324 323 321 320 320 321 322 322 323 323 323 323 323 323 321 322 322 321 324 324 324 324 324 324 324 323 324 323 324 324 324 324 324 323 322 322 319
329 326 327 327 327 325 325 322 320 320 322 322 323 323 323 323 322 322 322 322 322 322 323 324 325 324 324 324 324 323 323 323 323 321 320 320 315 312 310 309 306 304 303

GFSGL_850_thetae_069.txt.gz
Theta_e
316 316 317 319 319 319 319 320 322 318 315 312 312 313 316 324 336 338 343 345 346 344 342 341 334 340 345 346 343 341 339 339 340 340 337 335 336 335 335 333 332 327 327
317 318 318 316 318 317 317 319 320 319 318 321 317 313 312 314 316 326 341 346 346 344 340 341 345 346 346 346 339 339 341 339 338 339 336 335 334 333 333 331 327 328 326
315 315 315 316 316 317 319 318 319 317 316 317 324 324 316 314 314 317 327 333 339 341 341 344 346 346 346 342 344 342 342 339 340 338 336 334 334 333 332 329 327 328 327
315 314 314 314 315 315 316 319 318 319 320 320 320 331 329 319 322 325 328 337 340 341 342 346 346 345 341 343 344 343 343 340 339 336 335 334 333 332 330 329 328 327 328
314 314 314 314 313 314 314 315 317 318 318 318 316 324 331 330 319 331 336 343 342 343 344 345 346 344 342 342 342 342 339 339 337 334 335 334 333 330 330 329 327 327 328
313 313 312 312 312 312 311 310 316 319 318 318 321 323 329 332 328 332 338 343 346 344 346 347 345 343 343 344 342 342 339 337 333 335 335 333 331 330 330 328 328 328 327
312 312 311 311 310 310 310 318 319 318 317 320 321 324 325 331 332 330 338 341 343 342 344 347 346 342 341 341 339 339 338 335 333 332 332 329 330 330 331 328 328 328 327
312 311 311 311 311 313 313 314 317 316 317 318 319 320 325 328 332 329 336 341 342 342 344 342 339 340 341 339 339 338 335 335 334 333 330 328 330 331 330 328 327 328 327
311 311 311 311 311 311 313 313 316 316 318 318 321 323 327 328 329 331 337 341 341 341 339 343 340 339 337 338 336 333 332 333 333 330 329 329 329 328 328 328 327 327 329
310 310 311 311 311 311 311 309 315 317 320 320 321 325 327 326 328 330 335 338 340 339 340 341 339 338 338 335 334 334 333 331 330 329 329 329 327 326 325 324 327 328 328
310 309 311 312 311 311 312 313 315 313 316 317 318 320 325 326 327 330 335 338 338 337 338 339 338 334 335 334 334 333 332 330 330 330 329 327 326 327 327 327 328 328 327
309 310 310 311 310 311 312 312 312 311 315 319 318 316 322 326 328 333 334 336 337 337 336 337 336 336 335 333 330 329 330 330 329 327 327 327 327 327 326 327 327 327 327
309 311 311 311 313 312 312 313 315 313 316 319 317 319 320 325 330 335 336 334 335 338 337 334 333 331 329 328 327 327 328 328 327 326 326 326 327 326 325 325 326 326 326
308 309 310 311 312 313 313 314 316 314 316 317 318 319 322 326 331 337 334 335 335 337 335 332 330 328 327 326 326 326 326 327 327 327 327 327 327 327 326 325 325 326 326
308 308 311 312 312 313 314 314 315 315 316 315 317 322 328 332 333 335 335 335 336 334 332 330 330 327 327 327 325 325 326 326 326 326 328 328 327 327 326 325 325 325 325
308 309 310 311 312 313 314 315 315 315 314 314 317 326 333 332 333 333 333 335 333 331 330 329 328 326 325 324 325 325 326 326 327 326 326 326 326 326 326 326 324 325 326
308 309 311 312 314 315 315 315 314 313 315 321 325 331 332 332 333 333 333 332 329 328 329 329 326 326 325 325 326 326 326 327 326 326 326 326 325 323 324 324 324 326 325
309 311 312 314 315 316 316 317 317 320 324 327 330 330 332 332 331 331 328 327 328 328 328 327 326 326 326 326 327 326 326 326 325 326 326 324 323 324 323 324 325 324 325
312 314 316 318 318 320 322 323 324 325 329 329 332 331 330 330 329 327 327 326 328 328 326 327 327 326 326 326 326 325 325 324 324 325 325 326 325 325 325 325 325 325 324
319 322 322 323 323 325 325 327 327 328 331 330 329 329 328 328 330 330 329 327 327 327 327 327 327 327 327 327 326 325 323 323 322 322 323 323 325 324 325 325 324 324 323
323 323 326 323 326 326 327 325 327 329 330 329 328 328 328 329 328 328 327 326 327 328 326 327 327 327 327 327 325 324 323 322 322 323 323 322 322 323 324 323 323 325 325
320 320 324 322 324 328 328 327 327 328 329 328 328 327 327 327 326 326 326 327 327 327 327 327 327 327 327 326 325 323 322 322 322 322 322 323 323 324 323 324 324 324 324
330 328 329 329 329 329 328 328 327 327 327 326 326 326 325 326 326 326 327 327 326 326 326 326 327 326 325 324 323 323 323 324 324 324 324 324 324 324 324 325 325 325 323
329 329 329 328 328 328 327 326 325 325 324 324 325 324 326 326 326 326 326 326 326 326 326 326 326 325 324 323 324 325 325 325 325 325 325 324 324 324 324 324 323 322 321
328 328 328 328 327 326 325 324 323 323 324 325 325 324 324 324 324 325 325 325 325 325 325 325 324 324 325 324 325 324 324 324 325 325 324 323 322 322 321 321 320 319 316
327 327 327 326 326 325 324 323 322 322 322 323 323 323 323 323 322 323 324 324 324 324 324 323 323 323 323 324 323 322 323 323 324 324 322 321 320 320 318 315 308 305 304

GFSGL_850_thetae_072.txt.gz
Theta_e
316 316 315 315 317 318 318 317 316 316 316 316 318 321 318 319 321 324 334 336 335 331 330 335 340 340 344 345 344 344 345 340 337 337 339 339 337 334 335 335 335 334 332
316 316 316 317 318 319 319 320 320 317 317 318 318 316 319 324 319 318 319 320 331 335 336 341 341 341 343 341 341 343 345 339 338 341 338 338 336 335 334 334 333 331 327
318 318 318 317 316 316 317 317 318 319 318 320 317 317 316 319 328 322 317 321 326 327 332 339 340 339 340 341 342 343 341 339 341 341 337 338 337 335 333 333 332 328 327
316 315 315 315 315 315 316 316 316 317 319 319 321 319 319 317 316 327 330 319 322 331 334 336 336 338 338 342 343 342 339 339 340 339 336 337 335 334 333 332 329 328 327
315 315 315 314 314 314 314 313 313 313 314 316 317 317 318 317 316 316 328 331 320 325 332 340 342 341 342 343 341 339 340 337 337 339 336 336 334 333 332 331 329 328 327
313 313 313 313 313 313 313 313 313 313 313 312 312 311 319 317 317 322 325 331 331 330 338 340 343 341 342 342 340 339 339 339 338 338 337 335 333 334 333 330 329 327 327
314 313 313 312 312 312 311 311 311 310 310 312 313 317 319 317 318 319 321 328 332 330 333 339 342 341 342 342 340 339 340 339 338 337 335 332 333 331 330 330 329 327 328
314 314 313 313 312 312 311 310 310 310 309 313 318 319 317 316 316 315 323 326 330 330 333 340 340 339 340 338 337 340 338 338 337 335 333 332 331 328 330 330 329 327 328
311 311 311 311 311 310 310 309 309 310 310 311 315 316 315 315 316 321 326 328 328 330 337 339 339 338 337 337 338 338 337 335 334 335 334 332 329 328 328 328 328 327 328
311 311 311 311 310 310 309 309 310 310 310 311 315 317 318 319 320 322 327 327 328 331 337 338 336 335 335 336 337 336 334 332 330 331 331 329 329 328 327 327 327 326 327
309 309 310 310 310 310 309 309 310 311 312 311 313 317 318 319 319 321 325 325 327 332 336 336 334 331 334 334 336 335 333 332 331 329 329 329 328 326 326 325 325 327 328
308 310 310 311 310 309 310 311 312 311 311 313 312 314 315 316 317 318 322 325 328 334 335 335 329 328 335 334 333 331 331 331 330 330 329 328 326 326 327 327 327 328 327
308 309 309 309 309 310 311 311 311 310 312 311 312 313 313 314 314 317 319 324 329 335 334 334 333 333 333 334 333 330 329 329 329 328 327 326 326 326 326 326 327 327 327
307 308 308 309 310 310 311 311 313 313 313 315 315 312 313 315 314 315 317 324 334 334 334 333 333 334 334 332 330 327 327 328 327 326 325 327 326 325 325 325 325 326 326
307 307 307 308 309 310 310 311 312 312 312 313 314 313 314 315 316 317 321 328 333 333 330 331 331 329 328 327 325 326 326 326 326 326 327 327 327 326 326 325 325 325 325
305 307 309 308 308 309 310 312 313 313 313 315 317 315 313 314 320 324 327 332 332 332 327 332 329 327 326 326 325 325 326 326 326 326 327 327 327 326 326 325 325 324 324
305 306 306 307 308 310 312 312 312 313 315 314 315 314 314 316 326 330 330 332 332 331 332 330 329 327 326 325 324 325 326 326 326 326 326 326 326 325 326 326 325 325 325
305 305 306 310 311 311 312 313 313 314 313 313 313 313 315 322 328 330 331 332 332 332 329 328 328 326 325 324 325 326 326 326 326 326 325 324 324 323 323 324 324 324 324
305 307 308 309 311 313 314 315 315 314 314 315 319 321 323 329 330 331 329 330 331 329 328 328 326 325 325 326 326 326 325 324 324 324 323 323 323 323 324 324 324 324 324
308 309 312 314 315 316 318 317 316 317 321 322 327 327 329 330 327 331 330 328 327 328 328 326 326 326 326 325 325 325 325 324 324 324 323 325 324 325 324 324 324 324 324
316 316 320 318 320 320 320 321 323 322 323 325 326 328 327 329 328 328 328 328 327 326 326 326 325 326 326 326 325 325 323 322 322 322 322 322 323 322 324 324 324 324 324
322 323 322 323 324 325 324 324 323 323 320 322 323 327 329 328 328 328 327 327 327 326 326 326 326 326 326 326 324 323 322 322 322 323 322 322 321 323 323 324 323 324 323
322 322 322 323 325 325 325 324 320 323 324 326 327 328 329 328 327 326 326 327 327 327 327 327 327 327 326 325 324 322 322 322 322 322 322 323 323 324 323 324 325 324 322
323 323 325 325 325 325 324 325 325 325 327 327 328 328 327 326 326 326 326 326 326 327 327 326 327 326 325 324 323 322 323 323 323 322 323 323 324 324 324 324 325 323 322
327 327 327 326 325 324 325 326 326 327 327 327 327 326 326 326 327 326 326 326 326 326 326 326 325 325 323 323 324 325 325 325 324 324 324 323 323 322 321 321 320 318 316
328 328 328 328 327 327 326 326 325 325 324 325 325 325 325 325 326 326 326 326 326 326 326 326 325 324 324 324 324 324 324 324 324 322 321 321 321 320 320 318 317 313 307

GFSGL_850_thetae_075.txt.gz
Theta_e
316 316 316 314 315 316 317 317 317 317 317 316 317 317 317 318 319 320 323 329 328 333 336 334 336 334 331 332 332 336 337 336 340 339 338 338 334 337 335 334 333 333 334
317 317 316 315 315 316 316 317 317 317 318 318 317 319 318 317 316 316 319 321 319 322 325 325 329 335 335 333 338 339 338 339 339 338 337 338 337 335 335 334 333 333 333
317 317 316 316 315 316 316 315 315 316 316 316 317 319 320 319 319 317 316 318 324 323 318 319 321 323 326 332 334 335 338 339 338 336 333 338 337 336 335 334 333 332 332
317 317 317 316 316 316 317 316 315 316 315 315 316 316 318 317 318 318 318 317 314 322 328 320 321 331 330 331 334 336 336 338 338 336 337 340 337 337 335 334 333 332 329
316 317 317 317 317 317 316 315 314 314 314 314 313 313 313 313 315 315 317 318 316 319 328 329 321 324 329 337 343 341 340 339 337 335 338 339 337 336 334 332 332 331 329
314 313 314 314 314 314 314 314 314 313 313 313 313 313 312 312 312 312 311 316 316 319 323 330 330 331 333 338 342 339 339 338 338 337 338 337 337 336 332 332 332 330 329
311 312 313 313 313 313 313 312 313 312 311 311 310 310 310 308 309 309 315 318 316 314 316 329 328 330 332 337 340 339 338 337 337 337 336 337 336 332 332 332 331 330 328
308 309 311 312 313 313 313 312 312 312 311 310 310 310 309 309 317 318 320 316 316 315 324 326 328 328 333 338 338 338 336 336 336 336 337 336 333 332 331 328 330 330 328
307 307 309 312 313 313 313 313 312 311 310 310 309 308 308 309 316 317 317 316 315 323 326 326 328 328 337 337 335 336 334 335 334 336 336 334 333 332 328 328 329 329 327
306 306 306 308 310 311 312 311 310 310 310 309 309 308 309 310 315 316 316 316 319 325 325 325 326 330 335 335 334 333 331 333 335 333 331 333 333 330 328 328 327 328 327
305 305 306 307 308 308 310 311 311 310 310 309 308 308 310 309 314 320 318 317 319 322 324 324 325 333 335 334 328 326 330 332 332 330 329 329 329 329 328 327 324 325 325
305 305 307 308 308 309 310 311 310 310 309 309 309 310 310 311 311 315 317 317 317 318 322 324 329 334 335 331 327 326 332 332 331 330 329 329 328 328 326 326 326 326 327
304 305 305 307 308 309 310 310 310 310 309 310 311 311 310 311 312 315 316 315 315 316 319 324 330 334 329 327 327 331 331 330 329 329 329 328 327 326 326 327 327 327 327
304 305 306 307 307 309 310 310 310 309 310 311 311 311 311 311 311 314 315 313 313 314 319 325 331 332 328 331 332 332 330 329 328 328 326 326 326 326 326 326 326 327 327
304 306 306 307 307 307 307 308 309 310 310 310 311 311 313 315 312 315 312 314 314 316 322 331 332 331 329 329 332 331 328 328 328 326 325 326 326 325 325 325 325 326 326
304 305 306 307 307 307 308 309 310 310 311 311 312 312 312 313 314 313 313 316 318 321 331 332 331 327 327 331 330 326 326 327 326 326 326 326 326 326 325 325 325 325 324
303 304 305 307 307 307 308 309 309 310 311 312 313 313 314 315 314 314 313 320 324 328 331 330 328 329 330 328 325 325 326 326 326 326 327 327 326 326 326 325 324 323 323
303 304 305 308 308 308 308 309 310 312 312 313 313 313 315 315 313 313 315 323 327 328 331 326 324 330 327 325 325 325 326 325 325 326 326 327 326 325 326 325 323 323 324
304 305 306 306 308 308 309 310 311 311 312 313 313 313 313 313 313 313 319 327 328 328 330 328 329 327 326 325 324 325 325 326 326 325 325 325 324 323 323 323 323 323 323
304 305 306 307 308 311 312 312 313 314 314 314 314 314 313 312 313 318 326 326 327 329 330 330 328 326 325 324 325 325 326 325 325 324 324 323 322 322 323 323 324 323 324
306 306 308 309 309 312 313 314 314 314 315 316 320 323 323 321 323 325 326 328 328 330 329 327 325 324 324 325 325 325 324 324 324 323 322 323 324 324 325 325 324 324 323
314 312 313 314 314 315 317 319 320 320 321 323 324 323 322 325 326 324 324 326 329 328 327 325 325 325 325 324 324 324 324 322 322 322 322 324 324 324 324 324 324 324 323
321 320 320 319 320 320 321 320 321 322 323 324 324 326 325 325 329 329 329 328 327 326 326 325 325 325 325 325 324 323 322 321 322 321 322 321 321 322 323 324 323 322 322
322 322 324 323 324 324 323 323 323 321 320 323 324 324 326 326 328 327 327 326 326 326 326 325 326 326 326 325 323 322 322 321 322 322 322 322 322 323 323 325 324 322 321
324 324 324 324 323 322 321 321 323 322 324 323 324 325 327 327 327 327 326 326 327 327 326 326 326 326 325 324 322 322 322 322 322 322 322 322 324 323 323 323 323 321 318
325 325 325 324 324 324 323 323 325 325 326 327 327 326 326 325 325 326 327 327 326 326 326 326 326 325 323 323 323 324 324 324 323 323 323 322 322 320 319 318 317 316 310

GFSGL_850_thetae_078.txt.gz
Theta_e
315 314 315 315 314 314 316 317 318 318 317 317 318 317 318 317 316 317 319 321 323 324 324 324 327 331 328 330 331 333 333 333 333 336 335 337 337 336 335 336 334 333 332
316 316 316 316 315 313 314 317 317 317 317 318 318 317 317 318 318 318 318 316 317 318 320 322 321 321 319 323 325 330 338 337 335 335 337 336 337 336 336 335 334 334 333
317 317 317 317 315 314 314 315 316 316 316 317 316 317 316 316 315 316 316 315 315 315 315 314 321 325 323 318 328 326 331 330 330 334 335 338 336 336 335 335 334 334 333
315 316 317 317 316 315 315 315 316 316 315 315 315 315 315 315 315 316 315 315 313 315 314 315 314 326 328 322 322 330 334 333 332 337 337 338 335 334 336 336 335 333 332
315 315 316 317 316 316 315 316 316 317 316 316 315 314 313 313 313 313 312 312 311 311 312 314 314 315 327 326 328 331 335 340 341 338 337 335 333 335 335 335 334 331 331
313 314 314 314 315 317 316 317 317 316 315 314 313 313 313 313 313 311 309 309 308 309 309 316 315 312 318 325 327 331 334 340 339 337 335 333 333 335 334 335 332 331 332
310 310 312 313 313 314 315 316 315 314 313 313 313 313 312 311 310 309 308 308 310 311 319 316 315 313 315 326 323 330 335 339 337 336 334 333 332 333 336 333 331 331 331
309 309 310 309 311 312 313 313 313 313 313 312 312 311 311 310 310 309 308 312 316 319 319 317 315 320 320 324 324 332 337 337 336 334 331 331 331 333 332 331 331 330 330
306 306 307 308 309 309 310 312 313 313 313 312 312 312 311 310 309 308 307 313 318 318 317 316 318 325 324 323 323 335 335 335 332 328 327 328 331 333 332 330 328 329 329
305 305 305 306 306 307 308 310 312 313 313 313 312 310 310 309 309 308 307 312 316 317 317 316 319 324 323 322 330 334 335 334 329 327 327 331 332 333 331 329 328 328 329
305 305 305 305 305 306 306 307 308 311 312 312 311 310 310 309 308 307 307 313 321 320 318 315 315 323 322 326 333 334 334 332 331 331 332 331 330 331 330 328 327 326 326
304 304 304 304 305 305 305 306 307 307 309 311 310 310 310 309 308 308 308 313 319 317 318 315 314 321 322 330 333 333 330 329 329 330 331 329 328 328 328 327 326 324 324
303 305 304 304 304 305 306 307 308 307 307 307 309 311 310 308 308 308 310 310 315 317 317 315 314 319 322 330 332 330 327 327 330 332 330 329 328 328 327 326 327 326 327
302 302 303 303 304 305 306 308 308 308 309 310 310 309 309 309 309 310 310 311 315 317 316 315 313 318 322 332 329 327 327 330 330 329 329 328 328 327 326 326 327 327 327
300 303 303 303 304 305 305 307 309 309 309 309 309 310 309 309 310 310 310 311 315 315 313 313 314 319 326 330 327 328 327 331 329 328 328 326 326 326 326 326 326 327 326
301 301 302 304 305 305 306 307 307 308 309 310 310 309 310 310 310 311 313 311 313 314 315 315 317 321 331 328 328 328 329 330 328 328 325 325 326 325 324 325 325 325 325
299 302 305 304 305 307 307 307 307 307 308 309 310 310 311 312 311 312 314 315 316 316 316 322 320 332 330 326 323 325 328 328 328 326 325 326 325 325 325 325 325 324 323
301 302 304 305 307 307 307 307 307 308 309 310 310 311 311 312 312 313 314 316 316 314 319 324 329 328 324 324 322 327 328 327 326 326 326 326 326 326 325 324 324 323 322
303 303 304 305 306 307 307 308 308 309 309 310 311 311 312 313 313 317 318 318 314 314 322 325 329 326 324 325 329 327 325 326 325 325 327 327 326 325 325 325 324 322 322
303 304 305 306 307 307 308 308 309 309 310 311 311 312 312 313 314 315 314 314 314 321 324 326 329 329 328 328 326 325 326 325 325 326 326 326 325 323 323 323 323 322 322
304 305 305 306 307 309 310 311 311 311 311 313 313 313 313 313 313 313 312 313 319 324 326 327 329 327 327 325 324 325 325 326 325 324 323 323 323 322 323 323 323 323 324
306 306 306 307 308 308 311 312 312 313 315 314 315 316 317 318 314 313 314 322 326 326 327 328 329 327 325 324 325 325 325 324 324 323 323 323 323 324 324 324 324 324 324
313 311 311 311 312 312 313 315 317 317 318 320 319 320 321 321 320 320 324 327 326 322 325 328 326 325 324 325 325 324 323 323 323 322 323 324 323 323 324 324 324 322 322
319 318 317 316 315 316 317 319 319 321 322 321 322 324 324 325 326 326 326 326 326 326 326 324 324 325 325 324 324 322 322 321 322 321 322 321 321 322 323 323 323 322 321
323 323 322 321 321 321 322 320 321 321 321 323 325 325 325 326 325 327 327 327 326 325 325 325 325 325 324 324 322 321 321 321 322 322 321 321 321 322 324 324 323 321 320
323 324 323 321 321 320 321 321 321 322 323 323 323 324 327 327 327 326 326 326 326 325 325 326 326 325 324 323 322 322 321 321 321 321 322 322 323 323 323 323 321 317 315

GFSGL_850_thetae_084.txt.gz
Theta_e
327 329 330 329 326 323 317 316 316 316 315 317 326 331 334 336 338 340 338 338 339 339 338 337 337 338 338 337 336 336 334 333 333 330 324 329 330 330 335 335 336 335 335
323 325 325 327 326 325 321 321 324 321 319 325 326 327 328 332 335 336 337 336 337 337 336 333 332 332 334 335 335 336 333 332 332 325 322 326 327 329 334 335 333 333 336
319 321 321 322 325 326 325 325 324 324 324 325 325 326 326 326 328 327 326 327 327 327 325 325 325 325 327 327 330 330 332 333 332 332 325 323 324 334 328 331 333 330 335
316 317 319 322 323 319 326 325 324 323 322 323 323 323 323 324 324 324 324 324 324 323 323 322 321 321 323 325 326 326 328 330 331 335 334 326 330 331 328 325 332 330 333
315 316 316 316 319 323 325 326 325 323 322 321 321 320 321 322 322 321 320 320 320 319 317 315 317 319 318 320 321 320 321 324 327 330 335 334 332 332 330 331 335 337 334
312 315 316 316 316 317 321 324 324 323 322 321 319 319 322 320 317 316 318 318 317 314 311 314 317 316 315 311 311 317 315 315 325 329 332 334 332 335 335 335 334 337 338
312 311 313 314 315 315 316 320 323 323 322 323 322 320 320 318 317 315 313 315 315 313 311 311 318 320 322 324 322 323 320 321 324 329 331 333 336 336 338 335 332 335 337
311 311 311 311 313 314 315 315 319 322 321 321 322 322 321 320 316 314 313 313 314 312 312 312 311 322 325 324 322 325 327 328 330 330 325 329 334 336 332 330 335 334 336
309 311 311 311 311 312 314 315 314 316 319 321 321 321 321 320 316 314 313 313 316 317 316 313 311 319 323 321 320 324 325 326 326 326 325 331 332 334 330 331 331 334 335
307 308 311 311 310 311 313 313 315 316 316 320 320 321 321 320 317 314 313 314 315 316 317 316 314 314 316 318 318 317 321 324 328 330 331 334 330 331 327 328 334 335 334
302 306 306 308 309 311 311 312 314 315 316 319 319 319 320 318 318 313 312 313 314 315 315 315 316 319 322 319 318 315 314 318 321 332 333 332 331 328 328 331 333 334 333
299 300 302 305 307 309 311 311 313 315 315 315 318 318 318 318 316 316 313 313 314 314 314 314 315 315 319 319 317 316 314 319 325 333 332 329 329 327 326 328 331 331 329
299 299 299 301 302 307 309 310 311 313 315 315 315 317 317 318 318 316 314 313 313 312 312 313 310 309 315 316 317 315 315 319 333 332 331 329 328 330 330 331 330 330 330
300 300 299 300 301 302 306 309 310 311 312 315 315 315 316 316 317 317 315 313 313 312 311 311 309 309 310 317 318 314 316 328 331 329 328 328 328 330 329 329 329 329 329
299 300 299 300 301 301 303 306 308 310 311 313 315 315 315 315 316 317 316 316 315 315 313 313 314 316 318 319 321 313 315 331 329 328 326 327 329 328 329 329 330 329 329
299 300 299 300 300 301 302 304 305 308 309 310 312 314 315 315 315 314 313 314 314 314 315 314 315 317 319 319 321 313 315 331 329 327 327 328 329 328 328 329 329 329 329
299 299 299 300 301 302 303 303 306 306 308 308 309 310 312 314 313 313 313 312 310 309 311 313 316 317 319 320 321 314 319 329 328 328 329 329 329 329 327 330 329 329 329
301 300 301 302 303 303 303 305 305 305 307 309 309 309 310 311 312 311 311 310 309 310 312 314 316 317 319 321 321 323 323 329 328 329 330 330 328 330 329 329 329 328 328
305 302 303 303 303 303 304 305 304 305 307 308 310 308 308 309 309 309 309 311 312 313 313 315 315 319 321 321 325 324 328 328 328 329 330 328 329 328 328 328 328 328 327
306 305 305 305 305 305 305 304 304 305 306 309 309 310 310 309 309 309 309 311 315 315 317 316 318 319 320 324 324 328 329 328 329 330 328 328 329 328 329 329 327 325 326
308 307 307 307 307 307 307 308 308 308 308 308 309 311 311 309 310 311 311 312 313 314 317 319 319 319 320 325 326 328 329 329 330 328 328 328 329 329 328 324 323 326 327
308 309 308 309 308 309 309 309 309 311 312 313 312 311 312 311 312 313 313 314 314 315 316 318 319 321 321 322 327 328 328 328 329 328 329 329 329 328 326 325 326 327 326
310 311 311 311 311 311 312 313 314 314 313 313 313 313 312 313 314 315 315 315 315 316 316 319 321 320 323 324 328 327 328 329 329 328 329 328 326 326 328 327 327 325 323
312 313 313 313 314 315 315 316 317 317 317 317 316 315 314 314 313 316 316 316 317 318 319 320 319 323 326 326 326 328 328 329 329 329 329 328 328 326 327 326 324 324 324
315 315 315 316 317 317 318 318 319 319 320 319 318 317 316 315 315 316 318 319 319 319 316 320 324 325 327 328 328 328 327 328 328 328 326 326 325 324 323 324 323 323 323
315 315 316 317 317 318 319 321 321 321 321 321 321 320 319 319 318 318 318 319 320 322 325 324 325 326 325 328 328 328 327 326 325 324 322 322 322 323 323 323 322 322 319

GFSGL_850_thetae_087.txt.gz
Theta_e
324 327 330 334 337 337 337 336 337 343 339 339 345 343 343 342 342 341 341 340 338 340 340 340 339 337 338 335 333 335 335 334 334 333 334 333 328 325 328 325 332 337 336
321 324 328 330 332 333 333 323 324 335 336 334 336 335 335 336 337 339 339 339 339 340 340 339 339 339 336 336 336 336 335 336 336 333 334 332 330 324 324 323 330 333 336
319 320 321 326 329 330 329 329 329 330 330 328 328 329 330 330 333 334 334 335 337 338 338 337 336 334 332 333 334 333 334 333 333 332 331 331 333 323 323 324 337 330 337
315 318 320 320 325 326 329 328 328 327 327 327 327 327 326 327 329 330 330 333 333 332 330 328 327 326 326 326 327 328 328 328 327 329 330 331 332 333 324 324 331 332 329
314 315 316 320 319 324 327 327 327 325 324 325 326 326 326 326 326 326 326 327 327 326 325 322 320 320 319 321 323 324 325 325 323 322 324 328 331 332 335 335 334 334 332
313 313 315 315 319 319 320 325 327 326 325 323 323 323 324 324 324 324 324 325 324 322 320 318 318 315 312 311 312 313 319 318 317 320 321 323 330 331 334 337 336 337 332
311 313 313 314 315 318 318 319 324 327 326 324 322 322 322 322 322 323 322 321 321 320 320 317 316 320 321 322 324 324 322 323 324 324 327 322 324 327 331 331 334 337 332
308 310 311 313 314 315 316 317 318 323 325 325 324 321 320 321 321 319 317 319 320 320 320 316 314 315 323 324 326 325 324 326 328 329 330 328 326 326 328 330 334 335 331
304 306 308 310 312 314 313 316 317 319 323 325 325 325 322 322 320 317 316 315 318 320 320 320 320 320 320 321 324 324 324 325 325 325 327 330 331 327 326 330 335 329 328
302 304 306 308 309 310 314 312 313 316 318 322 324 324 325 325 322 319 316 315 317 319 320 321 318 317 318 318 317 324 325 323 323 325 324 321 330 331 332 329 329 326 330
302 303 303 304 307 308 311 314 312 312 315 316 318 320 324 325 323 321 318 315 317 318 319 319 319 318 316 316 318 320 322 318 315 314 318 328 333 334 330 329 327 325 334
300 300 301 302 304 305 307 310 314 313 314 316 315 317 319 321 323 322 320 316 316 317 318 318 318 316 315 314 312 318 319 316 315 314 318 334 333 329 328 326 328 331 332
299 299 299 300 300 301 305 308 311 315 315 314 314 314 319 322 322 322 321 317 313 315 317 317 317 315 313 312 310 310 315 315 319 316 328 334 330 328 327 327 328 332 330
300 300 300 299 300 300 303 307 308 313 316 318 318 318 318 320 322 321 320 318 315 313 314 314 314 314 313 312 310 314 320 319 321 320 334 332 331 331 327 326 330 331 331
300 300 300 300 300 300 301 304 307 311 314 315 318 318 319 320 321 320 320 318 316 315 313 314 316 316 316 317 319 318 320 321 323 325 332 331 329 328 330 329 329 330 330
301 300 299 299 299 300 301 302 305 308 311 314 316 317 318 319 319 319 319 319 318 316 315 317 318 318 317 317 319 321 323 323 321 331 331 330 326 330 330 330 330 330 330
301 300 299 299 300 300 301 302 303 305 310 312 312 314 316 317 317 318 318 318 317 317 317 318 317 316 316 317 319 321 323 323 322 331 330 326 330 331 330 329 329 330 330
303 301 300 300 301 301 302 303 303 305 307 309 311 311 311 313 316 316 316 316 316 315 315 315 314 314 314 317 319 321 323 323 324 331 329 328 330 331 330 329 330 331 330
305 305 303 303 302 303 303 305 305 306 307 308 309 310 309 310 312 313 314 314 315 315 314 313 313 314 315 317 320 322 323 325 322 330 328 330 330 330 329 329 328 328 328
308 306 305 304 304 304 304 305 305 305 306 307 307 308 310 309 310 311 312 313 314 314 314 314 314 315 316 318 321 323 324 325 327 330 329 329 329 328 329 328 329 329 328
309 308 307 307 306 306 305 306 308 307 305 305 307 308 309 310 311 311 312 313 313 313 314 315 316 317 317 319 322 324 326 325 330 328 328 329 328 330 328 328 328 327 327
310 310 309 309 308 308 308 308 307 306 305 306 309 311 310 310 310 311 311 311 312 313 315 316 318 319 319 320 320 325 324 329 329 329 329 329 329 328 328 328 327 328 326
312 311 311 311 311 311 310 310 310 310 309 308 309 310 311 312 312 311 312 313 313 314 315 316 317 319 321 321 323 324 328 329 329 329 329 328 328 328 328 327 327 327 325
312 313 313 314 314 313 314 315 314 313 313 314 314 315 313 312 314 314 315 315 316 316 316 317 318 318 322 322 322 324 327 327 329 328 327 328 329 328 327 327 327 326 323
314 315 315 316 317 318 318 317 317 317 317 316 315 315 314 314 314 316 315 316 315 316 316 316 319 321 320 323 323 327 328 328 329 328 328 327 327 327 327 326 324 323 323
310 311 315 315 316 317 318 318 319 319 320 319 317 317 316 315 314 316 317 318 317 318 318 321 319 317 322 325 326 327 328 328 328 329 328 327 327 326 324 322 322 322 321

GFSGL_850_thetae_093.txt.gz
Theta_e
316 315 315 316 316 316 316 317 319 325 326 329 329 330 332 332 334 332 332 329 324 324 333 334 333 335 335 335 335 335 336 334 333 335 333 332 333 331 325 327 329 326 323
316 316 315 315 314 315 316 316 316 321 324 327 327 328 330 330 331 330 328 326 326 322 332 327 332 334 336 336 335 337 336 335 336 336 333 333 330 329 328 322 328 331 322
314 314 314 315 315 315 315 316 315 316 320 325 325 326 328 328 326 325 324 323 323 325 324 325 327 328 334 333 334 332 335 334 333 333 333 332 329 326 327 329 331 330 327
309 310 311 312 312 313 314 315 316 315 318 321 324 321 323 324 324 324 321 322 320 323 328 331 330 333 331 329 330 332 334 333 332 331 328 324 326 326 325 328 333 330 329
306 306 307 308 309 310 312 313 313 315 315 317 322 325 322 322 324 320 322 324 327 328 331 332 333 333 333 332 332 331 331 329 325 322 320 323 323 320 322 315 325 327 327
304 304 304 303 304 306 308 310 311 312 315 315 319 319 323 322 321 321 321 323 329 330 331 333 331 330 328 328 327 325 324 322 322 324 325 324 322 315 317 324 324 323 323
302 302 303 303 303 303 305 306 308 310 311 315 318 320 317 323 323 320 325 326 330 331 332 330 327 327 320 315 314 313 317 319 320 319 319 324 326 325 327 327 324 324 325
301 302 301 301 301 302 304 303 305 308 309 310 317 318 321 321 324 327 329 332 332 329 329 328 324 317 318 315 314 316 322 325 325 323 322 325 325 325 324 325 326 325 326
299 300 300 300 301 302 303 305 305 306 307 309 313 317 318 318 316 319 330 328 327 327 327 323 316 318 317 314 315 313 312 316 322 322 320 322 324 325 325 325 320 319 324
301 301 301 301 300 300 302 303 303 304 306 308 311 316 318 318 316 320 328 325 325 323 322 313 314 314 315 315 315 314 313 312 310 315 319 317 317 315 312 315 324 332 330
301 301 302 302 302 301 300 301 302 304 306 308 311 316 319 317 320 324 326 324 325 325 315 315 315 315 315 316 316 315 314 313 312 310 309 311 312 312 315 329 334 330 327
302 304 304 303 302 301 300 300 302 304 304 307 310 314 318 320 318 320 323 323 324 321 314 316 315 317 318 318 316 315 314 314 314 312 310 310 312 315 329 331 330 327 328
304 304 304 303 303 301 300 300 301 302 304 306 309 313 318 318 319 322 322 321 320 318 314 317 319 321 319 317 317 315 314 314 314 314 310 313 316 321 330 330 328 327 327
304 305 305 303 303 302 301 300 300 302 304 305 308 310 316 318 318 321 319 320 319 317 316 318 320 319 318 318 316 315 314 315 317 319 314 318 320 321 330 329 328 327 327
305 305 305 301 300 300 300 300 300 300 302 304 307 309 314 316 318 317 319 317 319 319 318 318 318 318 318 317 316 315 315 316 318 321 321 321 321 322 330 330 328 327 327
306 306 305 301 299 300 299 300 300 300 302 303 304 309 311 315 315 316 318 316 317 315 313 315 316 316 317 316 315 315 316 317 317 320 321 323 320 321 330 328 327 327 327
308 307 305 302 301 300 299 299 300 300 301 303 305 308 310 316 316 316 316 319 317 320 320 320 319 318 318 317 316 316 318 316 317 320 323 323 321 323 330 327 326 327 327
309 308 306 304 302 301 301 301 301 302 302 303 303 308 309 311 316 317 316 319 317 318 319 320 320 319 318 317 316 318 317 314 316 321 323 322 322 318 329 326 327 327 328
310 309 309 306 305 303 303 303 302 303 304 304 303 306 307 309 314 317 317 318 319 318 318 318 318 318 317 316 318 317 316 312 316 320 323 323 322 318 328 328 328 328 328
311 311 310 309 307 306 305 305 303 304 304 305 304 308 308 310 313 318 318 316 316 317 317 317 319 317 316 316 315 315 314 313 316 321 321 323 322 322 329 328 327 325 328
312 312 312 311 310 308 307 307 306 305 306 305 306 308 309 310 313 316 318 319 318 318 319 319 318 317 316 316 315 312 314 312 316 320 323 322 323 323 327 327 327 327 329
311 312 312 312 312 312 310 307 306 306 306 305 308 308 309 311 311 314 316 318 318 318 319 319 318 317 316 315 314 314 317 316 319 323 323 321 321 328 327 327 328 328 328
308 311 312 313 314 314 314 311 308 307 306 306 306 307 308 310 310 311 314 317 317 316 316 316 316 315 315 314 313 316 320 319 318 320 320 320 323 328 327 327 327 328 327
306 308 309 310 311 312 314 313 312 309 307 306 306 307 307 308 309 310 312 313 315 316 316 315 315 315 314 314 314 313 319 322 322 321 320 320 324 327 326 325 326 328 327
302 303 305 308 309 309 311 313 314 312 311 307 306 306 306 307 308 309 309 311 312 312 313 314 314 314 314 314 313 312 316 319 320 321 320 322 328 327 326 325 325 324 325
300 301 302 305 305 306 309 311 313 314 313 313 310 308 309 311 310 309 309 309 311 312 312 312 311 311 312 312 311 313 318 319 319 319 319 325 327 327 326 324 322 325 323

GFSGL_850_thetae_096.txt.gz
Theta_e
315 316 316 315 315 316 316 315 318 318 316 315 314 316 324 326 326 328 329 329 332 333 331 330 330 328 326 324 331 336 337 337 336 333 331 332 334 333 332 327 325 328 329
311 311 312 313 314 313 314 315 316 317 316 314 314 315 321 324 325 326 329 331 331 330 327 327 326 325 326 331 332 335 335 334 334 331 333 335 334 333 329 328 325 330 331
309 309 309 309 309 310 311 312 313 313 315 315 315 315 318 321 323 324 325 329 329 329 326 325 325 325 326 325 332 332 334 334 334 335 335 333 333 328 327 325 326 327 332
307 306 305 305 304 304 306 307 308 311 312 313 314 315 316 318 323 323 324 327 327 325 324 324 323 323 323 324 327 329 330 333 334 334 332 333 327 326 325 323 324 330 329
305 304 304 303 303 303 303 303 304 307 310 311 311 314 316 316 320 323 323 324 323 323 321 320 321 320 321 327 327 327 327 328 332 333 332 327 326 321 319 317 320 316 314
302 302 302 301 302 302 303 302 302 303 306 309 309 311 317 316 318 322 324 321 322 320 320 324 329 331 332 331 329 330 329 330 331 329 326 323 323 322 318 322 322 322 314
302 304 302 301 301 301 301 301 301 303 304 304 307 309 311 317 317 320 321 320 321 323 326 328 330 331 331 331 331 330 328 326 323 319 314 314 319 324 325 326 325 323 324
304 303 301 301 301 301 301 301 301 303 303 305 307 308 310 313 315 320 319 320 321 321 321 328 330 331 329 329 327 322 316 317 318 317 318 319 322 324 324 323 323 324 322
301 300 301 301 301 302 302 301 301 301 303 305 305 307 309 310 314 316 317 319 322 322 322 329 327 325 321 317 314 317 322 323 323 322 322 320 320 322 323 322 322 319 315
301 301 303 303 304 304 304 302 301 301 301 303 305 306 306 310 313 317 316 319 318 320 326 326 319 317 316 315 315 312 311 312 313 317 320 319 318 317 316 312 312 315 330
301 303 305 305 305 304 303 303 301 300 300 302 303 307 309 310 314 318 318 317 317 320 323 319 320 318 315 315 315 314 313 313 312 311 310 310 311 312 312 314 321 330 332
303 305 306 306 305 304 303 303 301 300 300 302 303 305 309 314 318 318 318 318 317 321 320 318 317 315 315 316 315 314 314 314 314 313 313 310 312 314 321 329 331 328 326
305 306 307 306 304 302 299 302 301 300 300 302 303 305 310 315 320 319 319 318 319 320 318 314 315 315 317 317 316 314 314 314 314 318 314 311 315 318 324 330 328 328 327
305 307 307 305 303 301 300 300 301 300 300 302 304 307 311 317 319 320 318 321 321 319 315 315 317 319 319 317 316 315 314 315 316 320 320 319 318 320 325 330 328 327 327
308 309 308 304 303 300 300 300 300 300 300 302 305 307 310 315 319 316 319 321 321 319 316 319 320 320 317 317 317 316 315 316 316 318 320 321 322 318 322 330 328 328 327
308 309 308 306 303 300 300 300 300 299 300 302 303 307 309 312 317 317 319 315 320 319 318 319 319 318 318 317 317 316 315 316 316 317 318 321 322 320 324 329 327 326 327
308 310 308 306 305 302 301 300 300 300 300 302 302 303 308 311 315 316 316 318 315 316 318 318 317 316 316 316 316 317 316 317 315 315 319 322 323 322 318 329 326 327 327
309 311 310 308 306 304 303 302 301 301 301 301 302 305 307 309 314 315 316 318 317 317 317 316 318 319 318 317 318 317 317 317 314 314 318 322 323 322 319 327 327 326 326
310 311 312 311 308 307 306 304 303 303 303 304 302 304 309 309 313 315 314 316 318 317 318 319 318 318 317 317 318 317 318 317 313 313 318 321 323 322 321 321 327 327 326
309 311 311 312 311 309 307 307 306 304 304 304 303 306 309 309 312 315 315 317 318 317 318 318 317 317 317 317 316 316 316 314 313 313 317 321 323 323 322 326 327 326 325
307 309 311 311 311 312 310 307 307 305 306 305 304 309 309 309 311 315 315 316 317 319 317 317 318 317 317 316 316 315 313 317 313 313 322 323 323 321 322 327 327 321 322
307 308 309 309 309 310 313 309 307 306 306 306 306 309 309 310 311 314 316 316 317 317 317 317 317 316 318 317 316 315 315 320 319 317 320 321 320 320 327 327 327 325 325
304 305 308 309 309 310 312 310 309 306 306 307 308 309 309 311 313 314 315 317 317 317 317 317 317 319 318 317 315 314 313 315 319 320 319 321 320 320 327 327 326 326 327
301 302 303 306 307 307 310 312 310 308 306 306 307 308 309 310 311 313 316 317 316 316 317 318 318 318 317 316 315 314 314 314 315 322 322 321 320 321 326 327 325 325 327
299 300 301 302 304 304 307 309 310 310 309 307 306 306 307 309 310 311 313 316 316 315 315 316 316 316 315 315 315 314 314 313 312 314 319 320 318 324 327 324 323 325 326
298 299 299 300 301 303 304 306 308 310 311 309 307 307 306 307 308 310 311 311 314 316 316 316 315 315 315 315 314 312 311 311 312 318 320 320 318 326 326 325 324 324 324

GFSGL_850_thetae_102.txt.gz
Theta_e
310 310 309 309 308 309 311 313 313 313 312 312 311 310 310 312 315 317 316 315 313 312 312 311 315 324 328 332 331 328 330 332 331 328 323 324 326 330 332 333 333 331 330
306 306 307 308 311 312 315 314 313 312 310 308 307 307 308 309 309 313 315 317 314 313 312 312 312 319 327 328 329 332 331 331 331 329 323 324 327 327 329 332 331 330 330
305 307 309 311 312 314 313 311 310 309 308 308 308 308 308 306 306 308 311 316 316 315 313 312 312 315 324 325 327 329 332 330 331 326 324 326 327 326 330 332 331 331 329
309 310 310 310 311 311 310 309 309 308 307 305 305 304 305 305 304 306 308 312 313 315 315 314 313 315 321 325 326 329 329 330 329 328 326 325 325 329 332 332 332 330 326
310 310 309 309 309 309 308 308 305 304 304 304 304 303 303 303 305 306 308 309 311 316 317 315 317 316 324 323 325 325 326 326 327 327 327 327 329 330 331 332 332 329 325
308 308 308 308 307 307 306 304 304 304 305 304 304 303 302 302 303 304 304 307 310 317 318 316 320 320 321 322 323 324 325 325 326 326 328 328 328 330 331 331 328 326 325
305 305 306 305 304 304 303 303 305 306 305 304 303 303 302 302 302 304 306 308 307 312 317 317 320 322 323 323 324 324 327 327 329 328 327 328 330 330 330 326 324 322 319
303 304 304 303 302 302 304 306 306 306 305 304 304 303 303 302 302 302 305 307 310 312 316 317 319 322 322 322 322 324 327 325 325 326 323 323 323 327 327 326 321 317 317
304 303 303 302 303 305 307 306 307 304 303 303 302 302 302 302 302 301 304 305 310 313 314 317 320 321 321 322 322 323 326 327 326 327 327 328 327 326 322 318 321 323 323
304 304 304 303 305 307 307 307 303 303 301 301 301 300 301 301 301 300 303 306 308 311 317 317 319 320 320 320 321 325 324 325 321 319 319 320 319 320 322 323 321 321 320
304 304 304 306 307 308 307 305 303 301 300 300 301 300 302 301 301 302 304 305 307 312 317 318 318 316 315 320 320 321 321 320 322 321 321 320 320 319 320 319 318 315 312
303 304 306 306 307 308 305 304 303 301 299 301 301 301 300 300 302 304 305 307 308 312 316 319 318 316 318 318 319 321 322 322 320 317 316 316 316 315 314 312 312 312 318
303 306 306 307 308 307 306 305 303 301 299 300 300 300 300 302 304 305 305 309 309 315 318 318 317 318 321 319 320 315 313 313 313 313 312 312 311 311 314 314 321 328 326
304 305 306 307 309 308 307 306 303 302 300 299 300 300 300 304 306 306 311 310 311 316 318 317 316 318 316 316 315 314 314 318 316 313 312 314 317 320 322 325 328 330 329
303 304 306 306 308 308 307 306 305 303 301 300 299 300 301 303 303 306 314 311 317 317 317 315 315 316 316 315 314 315 318 319 320 320 319 318 319 323 325 327 327 328 328
303 302 303 305 307 309 308 307 306 303 302 300 301 302 304 303 306 309 315 317 318 318 317 317 319 316 314 314 315 316 316 316 317 318 320 321 318 322 326 328 328 327 327
301 302 303 305 306 307 308 307 306 305 304 303 302 303 303 306 309 308 314 317 318 318 318 319 317 316 314 314 315 316 315 314 315 319 321 321 321 321 327 327 327 327 327
301 303 303 304 305 306 305 307 307 306 304 304 304 303 303 307 308 309 313 317 318 317 318 319 317 316 314 315 316 316 316 313 313 319 321 321 322 321 320 326 327 326 326
300 301 303 305 306 306 307 307 306 307 306 305 304 304 304 310 310 314 315 317 316 317 317 319 318 316 315 316 317 317 316 314 312 316 319 321 322 322 321 321 326 326 326
300 301 302 304 306 308 308 308 308 306 306 305 305 304 305 311 313 315 315 316 318 318 318 318 316 315 317 317 317 317 314 313 312 313 318 321 321 321 322 322 324 326 326
299 300 301 303 304 306 307 307 307 306 306 305 305 304 307 310 312 314 315 316 314 314 315 315 315 317 317 316 316 313 315 314 311 312 318 322 320 319 321 323 326 326 324
298 298 300 300 302 305 307 306 305 307 305 304 304 307 309 310 312 312 313 315 316 317 317 317 317 317 316 315 313 318 319 318 314 322 321 319 319 320 325 326 325 324 321
298 298 299 299 301 303 306 306 306 307 307 307 308 310 311 312 313 312 314 314 314 316 317 316 317 317 317 316 314 314 316 319 318 318 319 319 320 320 325 326 325 322 323
298 297 298 298 299 301 304 306 306 307 308 309 310 310 309 309 310 313 313 313 313 315 317 317 317 317 316 316 316 313 313 312 317 320 321 321 320 319 321 326 326 323 323
298 297 298 297 297 299 300 303 306 306 306 307 309 309 309 310 309 310 311 314 315 316 317 318 317 317 317 317 316 315 314 313 313 312 312 315 319 318 320 326 326 323 323
292 296 297 298 297 296 297 299 301 304 306 307 307 308 308 309 310 312 312 312 313 315 316 316 316 316 316 317 316 316 315 314 313 312 311 309 315 318 319 325 326 325 324

GFSGL_850_thetae_105.txt.gz
Theta_e
310 310 309 309 307 307 307 308 309 312 314 314 313 312 311 311 311 311 310 310 313 316 320 321 321 316 322 323 319 321 325 330 331 329 327 329 326 327 328 324 327 329 330
307 306 306 306 307 308 310 311 313 313 313 312 311 310 309 308 308 308 309 309 310 314 318 320 321 321 322 320 322 314 325 326 329 328 329 331 329 330 330 323 327 333 332
305 305 306 308 309 311 312 313 313 311 310 309 307 305 305 305 305 304 305 306 307 310 315 317 319 321 322 322 321 322 317 326 328 328 328 330 330 328 329 325 330 333 331
306 307 309 311 312 312 312 311 310 308 306 305 305 305 305 305 304 304 305 306 308 310 311 314 317 318 320 321 321 321 319 323 327 328 327 328 328 328 328 329 330 334 333
308 310 312 312 311 310 308 308 306 304 305 305 306 305 305 304 304 304 304 304 305 306 308 312 315 316 319 318 320 320 317 323 325 327 326 326 327 328 329 328 326 330 333
311 311 310 309 309 307 307 305 304 305 306 306 305 303 304 304 304 304 303 302 303 305 307 309 311 317 318 316 315 316 321 322 325 325 326 326 328 328 329 330 327 330 332
308 306 304 305 305 305 304 305 307 306 305 304 303 303 303 303 303 303 303 302 302 303 305 307 311 315 317 318 318 322 323 322 324 325 326 326 327 327 328 328 327 328 331
306 302 304 305 303 304 305 306 307 304 303 303 303 301 301 301 301 301 302 302 302 302 304 307 312 316 317 318 320 321 322 323 323 324 324 325 326 327 327 326 326 330 329
301 302 304 303 303 304 306 307 305 305 304 303 302 301 301 301 301 300 302 301 301 303 305 310 314 316 317 320 320 321 321 322 325 324 325 328 327 327 327 327 329 329 325
302 303 303 302 303 305 306 306 308 307 304 303 301 301 301 302 301 301 301 301 301 304 309 311 315 316 318 319 320 320 322 323 323 323 324 324 325 327 329 328 326 322 323
303 303 302 303 304 306 307 308 308 307 305 303 301 301 301 301 301 301 300 301 303 305 309 312 316 317 316 319 320 321 321 321 323 322 324 325 326 326 324 321 319 316 322
302 303 302 304 305 306 308 309 309 307 305 303 301 300 301 300 300 303 304 304 305 307 310 315 317 316 315 318 316 317 316 316 318 316 315 318 320 323 324 323 321 321 320
301 303 301 303 305 307 308 309 308 306 304 303 301 300 300 301 301 304 305 306 306 308 311 315 314 315 318 318 319 320 320 321 321 321 316 318 322 322 321 320 317 313 312
300 302 302 303 307 307 308 308 307 306 305 303 301 301 301 302 303 303 306 308 309 309 313 313 315 317 319 319 320 321 321 323 320 320 320 319 319 317 315 315 315 320 324
299 301 302 303 305 307 307 307 307 307 305 303 302 301 303 303 303 304 308 310 310 314 316 315 316 317 318 318 318 318 316 315 314 314 312 314 320 323 322 323 327 327 327
298 301 303 304 306 306 306 307 308 306 306 304 303 303 304 303 304 307 312 310 311 316 316 317 317 319 315 314 316 318 319 319 318 317 318 320 322 325 326 329 329 327 327
299 301 303 304 304 305 305 305 304 306 307 306 304 304 304 306 309 313 312 313 316 317 317 318 319 317 315 316 316 316 316 317 319 321 321 322 324 327 328 327 329 329 328
300 300 301 302 303 304 305 306 305 306 306 306 306 305 305 309 311 314 314 316 316 318 317 320 318 316 316 316 315 313 313 318 320 320 321 324 324 327 327 328 328 328 327
298 299 300 301 301 303 306 307 306 306 306 305 306 306 307 312 313 314 317 317 317 317 319 319 318 315 315 316 316 314 311 314 319 321 322 325 325 325 328 327 327 327 327
298 299 299 300 301 304 306 306 305 306 306 306 305 305 310 312 314 313 315 316 317 318 318 319 317 315 316 317 317 316 315 314 313 319 321 323 322 325 325 327 326 326 326
298 299 299 300 300 303 305 305 305 305 305 305 305 309 311 311 315 314 316 317 317 318 318 318 316 315 317 317 316 314 314 312 312 315 319 322 321 325 325 326 326 326 326
298 298 298 298 299 302 305 306 306 306 305 306 307 310 311 311 314 314 314 315 315 315 315 316 315 317 316 316 317 318 319 316 316 321 321 320 323 325 325 326 326 324 326
297 297 298 298 298 301 304 305 307 307 307 307 308 309 310 312 312 312 314 315 317 316 317 317 317 316 316 314 317 319 321 319 320 320 320 321 322 321 325 326 325 323 322
298 297 296 297 297 299 302 304 304 306 307 307 308 309 309 311 312 312 313 314 314 317 317 317 317 316 316 314 313 313 314 318 318 318 320 320 320 318 322 326 325 323 323
292 295 296 295 296 297 298 300 302 304 305 306 307 308 309 309 309 311 312 312 314 314 316 317 317 317 316 316 315 313 313 313 313 313 312 312 315 318 319 326 326 324 322
289 290 292 295 295 295 296 297 299 300 303 304 304 305 307 309 310 311 311 312 314 314 315 317 317 317 317 316 317 316 315 314 314 314 312 310 309 315 319 322 325 324 322

GFSGL_850_thetae_108.txt.gz
Theta_e
312 312 311 310 309 308 307 308 308 309 310 312 313 313 313 313 313 313 313 314 315 316 317 317 319 320 322 322 322 323 322 323 324 324 324 327 329 330 333 332 332 333 333
311 309 308 307 307 307 308 309 310 312 312 312 312 312 312 312 311 311 311 311 311 312 313 314 316 319 320 321 321 322 322 322 323 324 323 326 329 330 333 333 332 332 333
310 309 309 309 309 309 310 311 312 312 312 311 311 311 310 310 310 310 310 309 309 310 310 311 313 314 317 320 322 322 322 322 322 323 323 324 329 330 331 333 331 332 334
308 309 309 310 311 311 311 310 310 310 309 310 309 309 309 309 309 309 309 308 308 308 308 308 310 312 314 317 319 320 321 321 321 322 323 323 328 330 330 330 330 332 333
309 309 310 309 309 309 309 309 308 308 308 309 309 309 309 309 308 308 307 307 306 306 306 306 307 308 312 314 317 319 320 320 321 323 323 322 326 329 330 329 331 334 331
308 308 309 309 308 307 307 307 307 308 308 308 308 308 307 306 306 305 305 303 304 304 305 305 306 307 310 310 315 316 317 319 318 318 319 322 325 327 327 329 330 333 331
306 307 307 307 307 306 306 306 307 307 307 307 307 307 306 306 305 304 302 302 303 303 303 304 306 306 307 312 314 316 317 317 316 317 318 323 326 325 328 328 329 332 330
304 305 305 305 304 304 304 306 307 307 306 305 307 308 307 305 303 302 303 302 302 302 302 302 304 306 308 311 317 318 320 320 319 320 322 323 325 327 327 327 328 330 334
302 302 302 301 303 302 304 305 306 305 306 306 306 306 305 303 304 302 302 302 301 301 302 303 304 306 310 312 316 317 317 318 318 322 323 323 322 326 327 326 326 330 331
299 300 303 304 303 302 302 304 304 307 306 308 307 306 304 302 302 301 301 301 301 302 302 304 305 307 310 314 316 316 316 319 320 321 323 324 324 324 324 326 326 327 328
298 301 303 304 303 302 302 303 307 306 308 308 306 304 303 303 302 302 302 303 303 302 302 304 310 311 315 317 316 317 319 320 322 322 324 322 324 324 324 327 327 327 328
300 301 303 304 302 300 302 306 306 307 308 307 305 304 303 303 303 304 304 304 304 304 304 305 309 313 316 317 319 318 317 319 321 323 322 323 322 324 325 327 327 326 326
299 300 301 302 301 303 304 304 304 307 307 307 305 304 305 305 306 306 304 305 306 306 305 307 310 313 316 315 314 314 316 319 318 319 319 319 320 323 324 325 325 324 324
297 299 300 303 303 303 302 303 305 305 306 306 305 307 305 305 307 305 306 307 309 308 309 312 314 315 317 317 317 314 319 314 315 315 316 320 319 318 321 322 323 323 322
299 300 300 302 303 303 304 306 306 307 306 306 306 306 306 305 307 306 308 310 310 311 312 314 316 318 319 319 317 317 317 317 316 314 312 312 316 316 320 320 318 320 325
298 299 300 300 302 304 306 309 308 308 306 307 306 305 305 305 307 310 312 311 310 314 317 317 319 318 318 319 319 319 319 319 316 316 318 317 319 319 317 319 319 323 327
297 297 298 301 302 304 305 306 307 308 307 307 307 306 305 306 312 312 311 312 313 316 318 319 319 318 319 320 320 320 321 321 321 322 323 323 323 324 325 326 327 327 326
296 297 299 300 302 303 305 305 305 305 306 306 308 308 307 313 314 315 313 314 317 317 319 319 318 319 319 318 318 320 322 322 323 324 324 324 325 327 328 326 326 326 326
296 297 299 300 301 303 305 304 304 305 306 306 309 309 311 313 314 315 313 316 317 317 319 320 318 318 319 318 317 317 321 324 324 325 324 324 327 328 328 328 327 327 327
297 297 298 299 302 304 305 304 305 305 306 308 309 308 310 313 314 316 314 317 315 316 320 320 319 319 319 319 319 318 318 319 323 324 325 325 324 324 328 328 328 327 327
294 297 299 298 302 303 305 305 305 306 306 307 307 309 312 313 314 317 317 317 316 319 320 320 319 319 319 319 319 319 317 317 319 322 324 325 325 324 324 327 328 327 326
292 294 298 298 300 302 303 305 306 306 306 307 309 310 310 313 313 316 318 318 318 319 319 319 319 319 319 319 321 322 319 321 323 323 324 324 325 326 326 326 327 330 328
291 291 295 296 298 300 302 303 305 305 307 307 307 308 310 311 310 313 314 319 319 319 319 319 319 319 318 320 321 322 322 322 323 323 324 324 324 325 327 328 328 326 327
290 290 291 295 295 295 298 300 301 303 304 305 306 306 308 311 312 313 311 313 317 318 317 319 320 320 318 318 318 318 319 320 320 320 321 324 325 324 323 326 326 323 323
289 289 289 291 293 293 294 295 296 299 301 303 304 305 307 308 309 312 312 314 314 315 317 317 318 316 319 319 318 316 313 313 313 314 316 317 321 324 322 323 326 325 324
288 288 287 288 289 291 291 293 293 294 297 299 302 303 304 305 308 309 310 312 313 312 315 316 316 317 317 317 318 316 314 314 314 314 315 317 317 322 321 320 325 324 320

GFSGL_850_thetae_111.txt.gz
Theta_e
318 317 316 315 314 314 313 312 311 310 310 310 313 316 317 317 317 316 316 316 316 316 315 316 316 316 318 320 322 324 324 326 325 326 325 324 325 326 326 330 332 335 333
316 316 316 314 313 314 315 313 313 314 315 316 316 317 316 316 315 314 314 315 314 314 314 313 313 314 314 316 318 320 321 323 325 326 326 325 325 326 324 325 329 333 333
315 314 314 314 314 313 314 314 315 316 316 316 315 315 315 314 313 313 313 313 313 313 312 312 312 311 311 312 314 316 320 323 324 324 324 324 323 323 325 327 329 330 332
314 313 314 314 314 314 314 314 315 315 315 314 314 313 313 312 312 312 312 311 311 310 310 310 309 309 309 310 310 313 316 318 321 322 324 324 324 324 323 326 329 330 331
312 312 312 313 313 313 314 313 313 312 313 313 312 312 312 311 311 310 310 308 308 307 307 307 307 308 307 307 308 308 311 315 319 321 322 323 323 323 324 325 327 329 331
311 312 312 312 312 313 313 312 311 311 311 311 311 311 310 311 310 308 307 306 305 305 305 305 305 305 305 306 306 307 307 309 312 316 321 323 322 323 323 323 324 328 330
311 311 311 311 311 311 311 310 310 310 310 311 310 310 310 310 309 308 307 305 305 304 304 304 304 304 304 305 305 307 307 310 312 312 315 318 321 321 320 322 325 328 329
309 309 309 308 308 308 307 308 309 309 309 309 310 308 309 309 309 308 305 303 304 304 303 304 303 303 303 303 304 306 307 310 315 313 315 317 318 317 319 319 325 327 331
308 307 306 305 304 304 303 304 307 308 308 308 308 308 308 307 307 305 303 303 303 303 304 304 303 303 303 303 304 305 307 309 314 318 319 320 318 320 321 322 325 328 329
304 303 302 301 300 303 305 304 304 306 307 307 308 308 308 308 306 304 305 304 303 303 304 304 304 303 304 304 305 307 309 311 315 319 318 317 317 320 322 324 324 326 328
301 301 300 300 302 305 305 303 304 305 307 308 307 307 307 306 305 305 305 304 305 304 304 305 305 305 305 307 310 311 312 314 316 317 320 321 319 321 323 323 325 327 328
302 301 300 302 301 304 301 302 304 306 307 306 306 308 307 307 307 307 307 305 305 304 306 306 306 307 309 311 313 316 316 317 318 318 319 321 321 322 324 325 324 325 325
299 298 301 301 300 302 301 302 304 306 305 306 306 305 306 308 308 308 305 306 307 309 309 308 311 313 314 314 314 316 316 319 319 320 321 322 322 323 323 324 324 325 326
298 299 300 300 301 303 301 302 304 305 305 305 305 305 307 308 308 305 307 309 310 311 311 314 314 315 314 315 313 315 314 315 317 318 321 320 320 323 324 325 325 325 327
298 297 297 299 300 300 302 304 305 307 305 305 306 306 306 307 306 308 309 312 311 312 314 315 317 316 316 316 316 316 314 313 313 314 316 317 317 319 323 325 325 325 325
297 296 297 296 298 300 302 305 307 306 306 307 306 306 308 307 308 311 312 311 312 316 317 318 318 318 319 318 319 319 318 316 314 312 314 313 313 315 318 316 316 315 320
295 295 297 298 298 301 303 303 305 307 307 306 307 309 309 310 313 313 312 312 314 317 318 318 319 320 319 319 321 320 319 317 318 319 316 315 318 314 316 319 321 324 323
295 296 297 297 299 302 303 302 302 304 307 308 309 310 311 312 314 312 312 314 315 317 318 320 320 319 317 318 322 321 321 322 321 322 322 322 322 317 319 322 322 324 324
295 296 298 299 300 302 301 302 304 306 307 308 309 310 312 313 315 315 313 317 317 319 319 320 320 319 319 318 317 321 324 323 324 324 324 323 325 325 326 326 326 326 326
295 294 298 299 301 303 302 303 304 305 307 308 310 311 313 314 315 316 319 317 316 319 320 320 321 320 320 320 319 319 320 323 324 322 324 326 325 327 327 327 327 326 325
295 294 296 298 300 301 301 302 303 304 305 307 309 311 312 313 314 319 321 316 316 319 321 320 320 320 322 322 319 318 320 322 324 323 324 324 326 325 327 328 327 327 326
295 294 294 295 296 298 299 301 303 304 304 306 308 310 312 313 315 317 317 316 318 320 320 320 320 320 322 322 323 323 324 324 324 323 324 325 326 327 326 327 327 327 327
294 294 293 293 294 294 297 298 300 302 303 304 305 307 310 310 311 313 313 315 319 321 322 322 321 320 320 321 321 321 321 321 322 323 323 326 325 326 327 327 326 325 325
293 292 292 292 292 292 293 294 296 298 300 302 303 305 305 307 309 312 314 315 314 318 320 321 321 322 321 318 316 315 315 315 317 318 318 322 324 325 325 325 326 326 325
292 291 291 290 289 289 291 292 292 294 294 297 300 301 303 303 303 308 310 311 310 312 317 318 319 319 320 320 318 314 313 313 314 316 319 319 323 321 319 325 323 324 322
290 290 290 289 288 287 287 288 289 291 291 292 294 298 300 303 305 307 307 309 310 311 313 315 316 316 318 318 318 317 315 315 315 316 319 319 322 323 318 320 324 322 319

GFSGL_850_thetae_114.txt.gz
Theta_e
320 319 318 317 316 315 315 314 313 313 312 311 311 311 312 313 316 317 317 316 315 315 315 316 316 314 315 314 314 315 317 319 322 323 325 326 327 325 325 326 325 325 326
318 318 318 317 315 314 314 313 311 312 312 312 312 315 315 316 316 316 315 314 315 314 314 313 314 314 314 313 313 312 312 314 318 320 322 322 323 326 327 326 326 324 323
316 316 316 316 316 315 314 313 313 312 313 315 315 315 316 315 315 314 313 313 313 313 313 313 312 312 312 312 311 311 310 310 312 315 318 320 323 325 324 325 325 323 326
315 315 314 313 312 311 313 314 314 314 315 314 314 314 314 314 313 313 313 313 312 311 310 309 308 307 307 309 309 309 309 309 310 311 313 316 321 321 324 325 324 325 324
314 313 313 313 313 313 314 314 314 314 312 312 313 313 313 312 312 312 311 310 311 310 308 307 307 306 306 305 305 306 306 306 307 308 307 311 316 322 324 321 325 323 326
312 312 312 312 313 313 313 313 313 312 311 311 311 312 311 311 310 310 310 310 309 309 308 306 305 304 305 304 304 304 304 305 306 307 308 308 310 316 322 324 323 325 325
312 311 311 311 311 311 310 310 310 309 310 310 310 310 310 310 310 309 309 308 309 308 306 304 304 304 304 304 304 304 304 304 304 305 306 308 308 312 318 322 324 323 322
310 310 309 308 308 307 307 307 306 307 309 309 309 309 309 310 309 308 308 307 308 304 304 305 305 304 304 304 305 304 304 303 303 305 307 309 310 313 312 317 319 320 319
307 306 305 304 304 304 303 303 305 306 306 307 307 308 309 309 308 308 308 306 304 304 305 305 305 305 305 305 304 304 304 304 305 305 305 306 309 314 315 314 318 319 318
303 302 303 302 301 302 302 303 305 304 305 306 306 307 308 308 308 306 307 306 306 306 306 306 307 307 305 305 305 305 304 306 308 309 310 312 316 317 318 319 319 319 321
300 303 303 303 301 301 301 303 304 303 304 305 306 307 307 306 307 307 308 307 308 306 306 308 308 307 307 307 306 306 308 310 312 312 313 314 315 319 319 319 319 318 322
301 302 302 301 301 302 300 302 303 303 304 305 306 307 306 306 307 309 309 308 307 308 309 310 311 313 313 313 313 314 315 314 314 315 315 315 316 318 319 320 317 319 322
301 301 301 301 302 301 301 303 303 304 305 306 306 305 305 306 307 308 307 308 310 310 311 313 314 314 313 313 313 314 315 314 316 317 317 318 317 318 319 321 321 323 323
300 300 300 300 301 301 302 303 303 304 305 305 304 304 306 307 307 307 308 310 311 312 313 314 316 316 315 315 314 313 313 313 316 319 320 320 321 322 321 323 323 324 325
299 299 299 299 298 300 302 303 305 305 303 303 304 306 307 308 310 310 311 312 312 314 316 315 316 315 317 318 317 317 316 314 315 315 317 319 319 318 319 322 322 325 324
296 298 297 298 299 301 303 306 306 304 306 306 306 307 309 309 311 312 313 313 313 314 316 317 317 318 319 319 318 316 315 315 315 314 316 316 315 322 323 323 324 325 326
296 297 298 299 300 301 302 302 304 307 306 308 309 310 310 311 313 313 313 313 314 316 316 319 318 316 315 319 320 319 320 320 319 318 314 315 317 318 324 324 324 325 325
296 295 298 299 299 301 301 303 304 305 307 309 310 311 313 314 314 313 314 314 316 318 319 321 320 319 318 319 316 320 320 323 323 322 319 313 315 317 318 318 321 320 317
296 295 297 298 299 300 302 303 303 305 305 307 310 313 314 315 314 314 315 315 316 318 319 321 322 320 320 319 319 321 322 323 324 324 324 320 315 317 321 323 323 320 322
296 295 295 297 299 301 302 304 305 305 305 305 305 308 312 315 316 318 318 317 316 318 320 320 321 321 321 320 321 322 321 322 324 324 324 325 325 325 325 324 324 323 325
295 295 295 295 296 298 298 301 303 304 303 303 304 305 308 312 315 317 316 316 317 318 320 318 320 320 321 322 322 322 323 324 323 322 324 325 325 326 327 326 325 325 324
294 294 294 294 293 295 295 297 300 302 303 303 304 306 309 310 313 313 313 316 317 317 321 322 320 318 318 317 318 319 319 320 322 322 322 324 326 326 327 327 326 325 325
293 293 293 291 292 292 293 293 296 298 299 300 302 304 307 306 310 311 312 315 316 310 316 317 317 316 315 314 315 317 318 318 319 322 323 322 326 325 323 325 325 325 325
292 292 291 290 289 290 290 291 292 294 296 297 298 300 303 305 306 310 311 313 315 307 316 317 318 318 316 313 313 313 314 316 318 319 323 323 318 325 326 325 324 323 323
291 291 289 289 287 288 288 289 289 291 293 294 295 297 298 300 303 306 307 306 307 313 312 312 315 318 317 318 317 315 315 316 319 320 322 321 316 318 322 324 324 323 319
289 289 289 288 287 286 286 287 288 288 288 290 290 291 293 296 298 299 302 304 306 308 308 310 312 315 317 317 317 316 316 316 316 318 319 322 321 317 318 322 321 319 317

GFSGL_850_thetae_117.txt.gz
Theta_e
319 318 317 317 316 316 315 315 314 314 313 312 311 311 311 312 312 313 315 316 315 314 314 314 314 314 314 314 315 314 314 313 313 313 313 313 316 318 320 325 326 327 326
318 317 317 316 315 315 314 313 312 312 311 311 310 311 312 313 314 315 315 314 314 313 314 314 314 313 313 313 312 311 311 312 312 311 311 311 311 315 318 322 322 325 327
316 316 316 315 314 313 312 311 310 310 310 310 311 311 311 312 314 314 314 314 313 313 312 312 312 311 310 309 308 307 306 308 310 310 309 309 310 311 313 318 320 323 325
315 314 313 312 311 311 311 312 313 313 314 314 314 313 313 313 313 313 313 312 312 311 311 310 310 310 309 307 306 306 306 306 306 307 308 307 308 308 309 314 321 321 324
313 312 311 311 311 312 312 312 312 313 313 313 312 311 311 312 312 312 312 311 310 310 309 309 308 309 308 307 304 305 305 305 306 306 306 305 306 306 306 309 318 322 322
311 311 311 311 311 311 311 311 311 312 312 312 311 310 310 310 310 310 310 309 309 308 308 307 307 306 305 305 305 305 304 304 305 305 305 305 306 306 306 307 311 317 323
311 310 310 310 310 309 309 310 310 310 310 309 309 309 310 309 309 309 309 308 308 307 307 306 305 305 306 306 306 306 305 305 305 304 304 305 305 306 305 305 307 313 320
308 308 308 308 308 309 309 309 308 307 307 308 308 308 308 308 308 308 308 308 307 306 306 307 307 307 306 306 305 304 304 305 305 304 304 303 303 303 304 304 306 309 314
305 305 305 307 307 307 308 307 306 306 307 306 305 306 306 306 307 307 307 306 307 307 308 308 307 307 307 307 305 304 304 305 305 304 304 304 304 304 306 308 311 314 315
303 304 304 304 305 304 302 302 302 303 304 304 304 305 306 307 307 306 307 307 308 309 308 308 309 309 309 309 307 304 304 308 307 307 307 308 307 306 305 306 308 309 315
302 303 303 303 303 303 304 303 302 303 303 305 305 306 307 306 307 307 307 308 309 307 308 310 312 312 313 313 313 310 310 312 311 309 309 308 309 310 311 310 311 313 314
302 302 302 302 302 303 303 304 303 303 304 305 307 308 307 307 306 307 307 308 308 309 311 313 314 315 315 315 313 313 314 313 313 313 313 312 313 313 314 316 318 317 318
301 301 302 301 302 303 304 304 304 304 304 306 306 306 307 307 308 309 309 309 310 311 313 314 314 315 316 316 315 314 314 314 314 313 314 316 316 315 314 318 318 319 319
299 300 301 301 303 304 304 304 304 304 304 305 306 305 306 308 309 310 310 311 312 314 314 315 315 316 317 318 316 316 316 315 314 316 318 318 318 317 317 317 320 320 318
298 299 300 301 304 304 304 303 303 303 304 305 304 306 307 309 310 310 311 312 313 314 316 317 318 318 317 315 319 317 316 315 314 316 318 319 320 320 320 320 321 321 321
298 299 300 302 301 302 303 305 303 305 305 305 305 308 309 310 312 313 313 313 315 317 318 319 319 320 318 317 316 320 320 317 316 313 315 317 318 317 316 321 322 322 323
297 298 300 301 300 302 304 304 306 306 306 307 310 311 312 312 313 314 313 315 316 317 319 320 320 321 318 317 317 319 322 323 318 313 317 320 322 319 317 320 322 323 322
296 297 299 300 301 300 300 301 303 305 308 309 311 312 314 314 314 314 315 315 316 318 319 320 321 321 320 319 319 320 321 321 319 320 318 321 322 322 321 322 322 323 323
295 296 298 299 300 299 300 301 303 305 306 307 311 312 314 314 315 316 315 316 317 319 319 320 320 320 321 320 322 321 321 323 321 316 316 318 322 323 323 322 323 323 317
294 294 296 297 298 298 299 300 302 303 305 305 306 306 310 314 314 315 315 317 317 316 319 319 316 316 318 318 321 321 321 323 322 322 320 318 318 320 320 321 321 320 320
294 293 293 294 295 296 296 297 298 300 302 302 302 303 305 307 309 312 313 315 317 316 318 316 314 314 315 317 318 320 321 320 323 324 325 325 323 322 321 321 321 322 323
293 292 291 292 292 294 294 294 296 297 298 300 301 303 305 305 307 309 312 313 313 314 311 311 311 312 314 315 318 319 322 322 319 323 324 325 325 324 324 324 325 325 324
291 291 290 289 291 292 292 292 292 294 296 296 298 300 302 303 303 307 308 311 312 312 312 310 314 314 313 314 316 318 320 322 322 318 322 324 324 325 324 324 324 324 323
290 288 288 287 288 289 289 289 289 289 291 292 293 294 297 298 300 302 307 308 311 311 308 310 313 315 316 315 315 317 318 319 322 321 317 321 324 324 323 323 323 324 324
288 289 287 287 287 287 287 288 288 288 288 289 289 290 292 296 298 299 302 305 307 311 311 309 312 315 316 316 316 315 316 318 320 321 321 318 319 323 323 323 319 318 319
288 288 287 287 286 286 285 286 286 286 286 287 287 287 287 289 291 293 298 303 305 305 305 307 309 311 312 315 316 316 316 316 318 319 319 319 318 319 320 320 318 317 316